Time,TemperatureF,DewpointF,PressureIn,WindDirection,WindDirectionDegrees,WindSpeedMPH,WindSpeedGustMPH,Humidity,HourlyPrecipIn,Conditions,Clouds,dailyrainin,SoftwareType,DateUTC
2013-08-03 00:01:00,66.6,53.2,29.85,North,358,4.0,5.0,62,0.00,,,0.00,Wunderground v.1.15,2013-08-03 05:01:00,
2013-08-03 00:04:00,66.4,53.0,29.85,North,354,6.0,6.0,62,0.00,,,0.00,Wunderground v.1.15,2013-08-03 05:04:00,
2013-08-03 00:05:00,66.4,53.0,29.85,North,359,6.0,6.0,62,0.00,,,0.00,Wunderground v.1.15,2013-08-03 05:05:00,
2013-08-03 00:09:00,66.4,53.0,29.85,North,354,4.0,5.0,62,0.00,,,0.00,Wunderground v.1.15,2013-08-03 05:09:00,
2013-08-03 00:10:00,66.4,53.0,29.85,North,359,6.0,6.0,62,0.00,,,0.00,Wunderground v.1.15,2013-08-03 05:10:00,
2013-08-03 00:11:00,66.3,52.9,29.85,North,358,4.0,6.0,62,0.00,,,0.00,Wunderground v.1.15,2013-08-03 05:11:00,
2013-08-03 00:15:00,66.1,53.1,29.85,North,0,6.0,6.0,63,0.00,,,0.00,Wunderground v.1.15,2013-08-03 05:15:00,
2013-08-03 00:19:00,65.8,52.9,29.85,North,0,5.0,5.0,63,0.00,,,0.00,Wunderground v.1.15,2013-08-03 05:19:00,
2013-08-03 00:21:00,65.8,52.9,29.85,North,359,7.0,7.0,63,0.00,,,0.00,Wunderground v.1.15,2013-08-03 05:21:00,
2013-08-03 00:25:00,65.6,52.7,29.85,North,359,4.0,7.0,63,0.00,,,0.00,Wunderground v.1.15,2013-08-03 05:25:00,
2013-08-03 00:26:00,65.5,52.6,29.85,North,357,4.0,7.0,63,0.00,,,0.00,Wunderground v.1.15,2013-08-03 05:26:00,
2013-08-03 00:30:00,65.5,52.6,29.85,North,353,7.0,7.0,63,0.00,,,0.00,Wunderground v.1.15,2013-08-03 05:30:00,
2013-08-03 00:32:00,65.3,52.4,29.85,North,359,4.0,7.0,63,0.00,,,0.00,Wunderground v.1.15,2013-08-03 05:32:00,
2013-08-03 00:34:00,65.3,52.4,29.85,North,359,4.0,7.0,63,0.00,,,0.00,Wunderground v.1.15,2013-08-03 05:34:00,
2013-08-03 00:35:00,65.3,52.4,29.85,North,359,3.0,7.0,63,0.00,,,0.00,Wunderground v.1.15,2013-08-03 05:35:00,
2013-08-03 00:36:00,65.3,52.4,29.85,North,358,5.0,7.0,63,0.00,,,0.00,Wunderground v.1.15,2013-08-03 05:36:00,
2013-08-03 00:39:00,65.2,52.3,29.85,North,359,5.0,5.0,63,0.00,,,0.00,Wunderground v.1.15,2013-08-03 05:39:00,
2013-08-03 00:41:00,65.2,52.3,29.85,North,359,3.0,5.0,63,0.00,,,0.00,Wunderground v.1.15,2013-08-03 05:41:00,
2013-08-03 00:44:00,65.2,52.3,29.85,North,356,4.0,5.0,63,0.00,,,0.00,Wunderground v.1.15,2013-08-03 05:44:00,
2013-08-03 00:45:00,65.2,52.3,29.85,North,356,5.0,5.0,63,0.00,,,0.00,Wunderground v.1.15,2013-08-03 05:45:00,
2013-08-03 00:47:00,65.2,52.3,29.85,North,356,3.0,5.0,63,0.00,,,0.00,Wunderground v.1.15,2013-08-03 05:47:00,
2013-08-03 00:50:00,65.3,52.4,29.85,North,356,4.0,4.0,63,0.00,,,0.00,Wunderground v.1.15,2013-08-03 05:50:00,
2013-08-03 00:54:00,65.2,52.3,29.85,North,358,4.0,4.0,63,0.00,,,0.00,Wunderground v.1.15,2013-08-03 05:54:00,
2013-08-03 00:55:00,65.2,52.3,29.85,North,359,4.0,4.0,63,0.00,,,0.00,Wunderground v.1.15,2013-08-03 05:55:00,
2013-08-03 01:00:00,65.2,52.7,29.86,North,0,4.0,4.0,64,0.00,,,0.00,Wunderground v.1.15,2013-08-03 06:00:00,
2013-08-03 01:01:00,65.2,52.7,29.86,North,358,5.0,5.0,64,0.00,,,0.00,Wunderground v.1.15,2013-08-03 06:01:00,
2013-08-03 01:05:00,65.0,52.5,29.86,North,0,4.0,5.0,64,0.00,,,0.00,Wunderground v.1.15,2013-08-03 06:05:00,
2013-08-03 01:09:00,64.8,52.8,29.86,North,1,4.0,4.0,65,0.00,,,0.00,Wunderground v.1.15,2013-08-03 06:09:00,
2013-08-03 01:11:00,64.7,52.7,29.86,North,4,4.0,4.0,65,0.00,,,0.00,Wunderground v.1.15,2013-08-03 06:11:00,
2013-08-03 01:14:00,64.7,52.7,29.86,North,11,2.0,4.0,65,0.00,,,0.00,Wunderground v.1.15,2013-08-03 06:14:00,
2013-08-03 01:15:00,64.5,52.5,29.86,North,11,4.0,4.0,65,0.00,,,0.00,Wunderground v.1.15,2013-08-03 06:15:00,
2013-08-03 01:17:00,64.5,52.5,29.86,North,11,2.0,4.0,65,0.00,,,0.00,Wunderground v.1.15,2013-08-03 06:17:00,
2013-08-03 01:20:00,64.3,52.3,29.86,NNE,23,4.0,4.0,65,0.00,,,0.00,Wunderground v.1.15,2013-08-03 06:20:00,
2013-08-03 01:21:00,64.3,52.3,29.86,NNE,24,4.0,4.0,65,0.00,,,0.00,Wunderground v.1.15,2013-08-03 06:21:00,
2013-08-03 01:25:00,64.2,52.6,29.86,NNE,22,3.0,4.0,66,0.00,,,0.00,Wunderground v.1.15,2013-08-03 06:25:00,
2013-08-03 01:31:00,64.2,52.2,29.86,NNE,22,3.0,3.0,65,0.00,,,0.00,Wunderground v.1.15,2013-08-03 06:31:00,
2013-08-03 01:34:00,64.0,52.0,29.86,NNE,22,3.0,3.0,65,0.00,,,0.00,Wunderground v.1.15,2013-08-03 06:34:00,
2013-08-03 01:37:00,64.0,52.4,29.86,NNE,22,2.0,3.0,66,0.00,,,0.00,Wunderground v.1.15,2013-08-03 06:37:00,
2013-08-03 01:39:00,64.0,52.4,29.86,NNE,22,2.0,2.0,66,0.00,,,0.00,Wunderground v.1.15,2013-08-03 06:39:00,
2013-08-03 01:44:00,63.9,52.3,29.87,NNE,22,2.0,3.0,66,0.00,,,0.00,Wunderground v.1.15,2013-08-03 06:44:00,
2013-08-03 01:46:00,63.9,52.7,29.87,NNE,22,2.0,3.0,67,0.00,,,0.00,Wunderground v.1.15,2013-08-03 06:46:00,
2013-08-03 01:49:00,63.7,52.5,29.87,NNE,22,2.0,2.0,67,0.00,,,0.00,Wunderground v.1.15,2013-08-03 06:49:00,
2013-08-03 01:51:00,63.7,52.5,29.87,NNE,22,3.0,3.0,67,0.00,,,0.00,Wunderground v.1.15,2013-08-03 06:51:00,
2013-08-03 01:54:00,63.5,52.7,29.87,NNE,22,3.0,3.0,68,0.00,,,0.00,Wunderground v.1.15,2013-08-03 06:54:00,
2013-08-03 01:55:00,63.5,52.7,29.87,NNE,22,3.0,3.0,68,0.00,,,0.00,Wunderground v.1.15,2013-08-03 06:55:00,
2013-08-03 02:00:00,63.4,52.7,29.87,NNE,22,3.0,3.0,68,0.00,,,0.00,Wunderground v.1.15,2013-08-03 07:00:00,
2013-08-03 02:01:00,63.4,52.7,29.87,NNE,22,4.0,4.0,68,0.00,,,0.00,Wunderground v.1.15,2013-08-03 07:01:00,
2013-08-03 02:03:00,63.2,52.5,29.87,NNE,22,2.0,4.0,68,0.00,,,0.00,Wunderground v.1.15,2013-08-03 07:03:00,
2013-08-03 02:05:00,63.2,52.9,29.87,NNE,23,4.0,5.0,69,0.00,,,0.00,Wunderground v.1.15,2013-08-03 07:05:00,
2013-08-03 02:06:00,63.2,52.9,29.87,NNE,25,3.0,5.0,69,0.00,,,0.00,Wunderground v.1.15,2013-08-03 07:06:00,
2013-08-03 02:07:00,63.2,52.9,29.87,NE,53,3.0,5.0,69,0.00,,,0.00,Wunderground v.1.15,2013-08-03 07:07:00,
2013-08-03 02:10:00,63.2,52.9,29.87,NE,41,4.0,4.0,69,0.00,,,0.00,Wunderground v.1.15,2013-08-03 07:10:00,
2013-08-03 02:11:00,63.2,52.9,29.87,NE,39,4.0,4.0,69,0.00,,,0.00,Wunderground v.1.15,2013-08-03 07:11:00,
2013-08-03 02:15:00,63.1,52.8,29.88,NE,44,5.0,6.0,69,0.00,,,0.00,Wunderground v.1.15,2013-08-03 07:15:00,
2013-08-03 02:16:00,62.9,52.6,29.88,NE,43,4.0,6.0,69,0.00,,,0.00,Wunderground v.1.15,2013-08-03 07:16:00,
2013-08-03 02:20:00,62.9,53.0,29.88,NE,37,5.0,5.0,70,0.00,,,0.00,Wunderground v.1.15,2013-08-03 07:20:00,
2013-08-03 02:21:00,62.7,52.8,29.88,NE,39,4.0,5.0,70,0.00,,,0.00,Wunderground v.1.15,2013-08-03 07:21:00,
2013-08-03 02:22:00,62.7,52.8,29.88,NE,41,3.0,6.0,70,0.00,,,0.00,Wunderground v.1.15,2013-08-03 07:22:00,
2013-08-03 02:23:00,62.7,52.8,29.88,NE,41,5.0,6.0,70,0.00,,,0.00,Wunderground v.1.15,2013-08-03 07:23:00,
2013-08-03 02:25:00,62.6,52.7,29.88,NE,44,4.0,6.0,70,0.00,,,0.00,Wunderground v.1.15,2013-08-03 07:25:00,
2013-08-03 02:26:00,62.6,52.7,29.88,NE,49,4.0,6.0,70,0.00,,,0.00,Wunderground v.1.15,2013-08-03 07:26:00,
2013-08-03 02:28:00,62.6,53.1,29.88,NE,42,5.0,6.0,71,0.00,,,0.00,Wunderground v.1.15,2013-08-03 07:28:00,
2013-08-03 02:30:00,62.4,52.9,29.88,NE,42,4.0,5.0,71,0.00,,,0.00,Wunderground v.1.15,2013-08-03 07:30:00,
2013-08-03 02:35:00,62.3,52.8,29.88,NE,44,5.0,6.0,71,0.00,,,0.00,Wunderground v.1.15,2013-08-03 07:35:00,
2013-08-03 02:36:00,62.3,53.2,29.88,NE,47,3.0,6.0,72,0.00,,,0.00,Wunderground v.1.15,2013-08-03 07:36:00,
2013-08-03 02:37:00,62.3,53.2,29.88,NE,51,4.0,6.0,72,0.00,,,0.00,Wunderground v.1.15,2013-08-03 07:37:00,
2013-08-03 02:41:00,62.1,53.0,29.88,NE,53,4.0,5.0,72,0.00,,,0.00,Wunderground v.1.15,2013-08-03 07:41:00,
2013-08-03 02:42:00,62.1,53.0,29.88,NE,49,6.0,6.0,72,0.00,,,0.00,Wunderground v.1.15,2013-08-03 07:42:00,
2013-08-03 02:44:00,62.0,52.9,29.88,NE,50,4.0,6.0,72,0.00,,,0.00,Wunderground v.1.15,2013-08-03 07:44:00,
2013-08-03 02:45:00,62.0,52.9,29.88,NE,52,6.0,6.0,72,0.00,,,0.00,Wunderground v.1.15,2013-08-03 07:45:00,
2013-08-03 02:47:00,62.0,52.9,29.88,NE,48,5.0,6.0,72,0.00,,,0.00,Wunderground v.1.15,2013-08-03 07:47:00,
2013-08-03 02:48:00,62.0,52.9,29.88,NE,50,5.0,6.0,72,0.00,,,0.00,Wunderground v.1.15,2013-08-03 07:48:00,
2013-08-03 02:50:00,61.8,52.7,29.88,NE,55,5.0,5.0,72,0.00,,,0.00,Wunderground v.1.15,2013-08-03 07:50:00,
2013-08-03 02:52:00,61.8,52.7,29.88,ENE,60,5.0,6.0,72,0.00,,,0.00,Wunderground v.1.15,2013-08-03 07:52:00,
2013-08-03 02:55:00,61.8,52.7,29.88,ENE,62,4.0,6.0,72,0.00,,,0.00,Wunderground v.1.15,2013-08-03 07:55:00,
2013-08-03 02:57:00,61.8,52.7,29.88,ENE,57,4.0,6.0,72,0.00,,,0.00,Wunderground v.1.15,2013-08-03 07:57:00,
2013-08-03 02:59:00,61.8,52.7,29.88,NE,55,4.0,4.0,72,0.00,,,0.00,Wunderground v.1.15,2013-08-03 07:59:00,
2013-08-03 03:00:00,61.8,52.7,29.88,NE,55,4.0,4.0,72,0.00,,,0.00,Wunderground v.1.15,2013-08-03 08:00:00,
2013-08-03 03:01:00,61.8,52.7,29.88,ENE,58,3.0,4.0,72,0.00,,,0.00,Wunderground v.1.15,2013-08-03 08:01:00,
2013-08-03 03:04:00,61.8,52.7,29.88,NE,54,4.0,5.0,72,0.00,,,0.00,Wunderground v.1.15,2013-08-03 08:04:00,
2013-08-03 03:05:00,61.6,52.5,29.88,ENE,58,5.0,5.0,72,0.00,,,0.00,Wunderground v.1.15,2013-08-03 08:05:00,
2013-08-03 03:06:00,61.6,52.5,29.88,ENE,58,3.0,6.0,72,0.00,,,0.00,Wunderground v.1.15,2013-08-03 08:06:00,
2013-08-03 03:07:00,61.6,52.5,29.88,ENE,58,4.0,6.0,72,0.00,,,0.00,Wunderground v.1.15,2013-08-03 08:07:00,
2013-08-03 03:10:00,61.6,52.9,29.88,ENE,58,4.0,5.0,73,0.00,,,0.00,Wunderground v.1.15,2013-08-03 08:10:00,
2013-08-03 03:11:00,61.6,52.9,29.88,ENE,60,4.0,5.0,73,0.00,,,0.00,Wunderground v.1.15,2013-08-03 08:11:00,
2013-08-03 03:12:00,61.6,52.9,29.88,ENE,58,4.0,6.0,73,0.00,,,0.00,Wunderground v.1.15,2013-08-03 08:12:00,
2013-08-03 03:15:00,61.5,52.8,29.88,ENE,57,5.0,6.0,73,0.00,,,0.00,Wunderground v.1.15,2013-08-03 08:15:00,
2013-08-03 03:16:00,61.5,52.8,29.88,NE,38,5.0,6.0,73,0.00,,,0.00,Wunderground v.1.15,2013-08-03 08:16:00,
2013-08-03 03:17:00,61.5,52.8,29.88,NE,51,4.0,6.0,73,0.00,,,0.00,Wunderground v.1.15,2013-08-03 08:17:00,
2013-08-03 03:20:00,61.5,52.8,29.88,NE,55,5.0,5.0,73,0.00,,,0.00,Wunderground v.1.15,2013-08-03 08:20:00,
2013-08-03 03:24:00,61.5,52.8,29.88,ENE,63,3.0,5.0,73,0.00,,,0.00,Wunderground v.1.15,2013-08-03 08:24:00,
2013-08-03 03:25:00,61.5,52.8,29.88,ENE,60,6.0,6.0,73,0.00,,,0.00,Wunderground v.1.15,2013-08-03 08:25:00,
2013-08-03 03:26:00,61.5,52.8,29.89,ENE,60,4.0,6.0,73,0.00,,,0.00,Wunderground v.1.15,2013-08-03 08:26:00,
2013-08-03 03:30:00,61.5,52.8,29.89,NE,53,3.0,5.0,73,0.00,,,0.00,Wunderground v.1.15,2013-08-03 08:30:00,
2013-08-03 03:31:00,61.5,52.8,29.89,NE,52,4.0,5.0,73,0.00,,,0.00,Wunderground v.1.15,2013-08-03 08:31:00,
2013-08-03 03:32:00,61.5,52.8,29.89,NE,52,4.0,5.0,73,0.00,,,0.00,Wunderground v.1.15,2013-08-03 08:32:00,
2013-08-03 03:35:00,61.3,52.6,29.89,NE,48,4.0,5.0,73,0.00,,,0.00,Wunderground v.1.15,2013-08-03 08:35:00,
2013-08-03 03:36:00,61.3,52.6,29.89,NE,48,3.0,5.0,73,0.00,,,0.00,Wunderground v.1.15,2013-08-03 08:36:00,
2013-08-03 03:37:00,61.3,52.6,29.89,NE,48,4.0,5.0,73,0.00,,,0.00,Wunderground v.1.15,2013-08-03 08:37:00,
2013-08-03 03:39:00,61.2,52.5,29.89,NE,48,4.0,4.0,73,0.00,,,0.00,Wunderground v.1.15,2013-08-03 08:39:00,
2013-08-03 03:41:00,61.2,52.8,29.89,NE,49,3.0,4.0,74,0.00,,,0.00,Wunderground v.1.15,2013-08-03 08:41:00,
2013-08-03 03:42:00,61.2,52.8,29.89,NE,48,4.0,4.0,74,0.00,,,0.00,Wunderground v.1.15,2013-08-03 08:42:00,
2013-08-03 03:44:00,61.2,52.8,29.89,NE,46,3.0,5.0,74,0.00,,,0.00,Wunderground v.1.15,2013-08-03 08:44:00,
2013-08-03 03:47:00,61.2,52.8,29.89,NE,46,4.0,5.0,74,0.00,,,0.00,Wunderground v.1.15,2013-08-03 08:47:00,
2013-08-03 03:50:00,61.2,52.8,29.89,NE,46,4.0,4.0,74,0.00,,,0.00,Wunderground v.1.15,2013-08-03 08:50:00,
2013-08-03 03:51:00,61.2,52.8,29.89,NE,46,3.0,4.0,74,0.00,,,0.00,Wunderground v.1.15,2013-08-03 08:51:00,
2013-08-03 03:52:00,61.0,52.7,29.89,NE,46,4.0,4.0,74,0.00,,,0.00,Wunderground v.1.15,2013-08-03 08:52:00,
2013-08-03 03:55:00,61.0,52.7,29.89,NE,46,4.0,4.0,74,0.00,,,0.00,Wunderground v.1.15,2013-08-03 08:55:00,
2013-08-03 03:56:00,61.0,52.7,29.89,NE,46,4.0,4.0,74,0.00,,,0.00,Wunderground v.1.15,2013-08-03 08:56:00,
2013-08-03 04:00:00,61.0,53.0,29.89,NE,46,4.0,4.0,75,0.00,,,0.00,Wunderground v.1.15,2013-08-03 09:00:00,
2013-08-03 04:02:00,61.0,53.0,29.89,NE,46,3.0,4.0,75,0.00,,,0.00,Wunderground v.1.15,2013-08-03 09:02:00,
2013-08-03 04:05:00,60.9,52.9,29.89,NE,46,3.0,4.0,75,0.00,,,0.00,Wunderground v.1.15,2013-08-03 09:05:00,
2013-08-03 04:07:00,60.9,52.9,29.89,NE,46,3.0,4.0,75,0.00,,,0.00,Wunderground v.1.15,2013-08-03 09:07:00,
2013-08-03 04:08:00,60.9,52.9,29.89,NE,46,3.0,4.0,75,0.00,,,0.00,Wunderground v.1.15,2013-08-03 09:08:00,
2013-08-03 04:10:00,60.9,52.9,29.89,NE,46,5.0,5.0,75,0.00,,,0.00,Wunderground v.1.15,2013-08-03 09:10:00,
2013-08-03 04:12:00,60.7,52.7,29.89,NE,46,3.0,5.0,75,0.00,,,0.00,Wunderground v.1.15,2013-08-03 09:12:00,
2013-08-03 04:15:00,60.7,52.7,29.89,NE,46,2.0,5.0,75,0.00,,,0.00,Wunderground v.1.15,2013-08-03 09:15:00,
2013-08-03 04:17:00,60.7,52.7,29.89,NE,44,3.0,5.0,75,0.00,,,0.00,Wunderground v.1.15,2013-08-03 09:17:00,
2013-08-03 04:20:00,60.5,52.5,29.89,NE,44,3.0,3.0,75,0.00,,,0.00,Wunderground v.1.15,2013-08-03 09:20:00,
2013-08-03 04:21:00,60.5,52.5,29.89,NE,44,4.0,4.0,75,0.00,,,0.00,Wunderground v.1.15,2013-08-03 09:21:00,
2013-08-03 04:23:00,60.5,52.9,29.89,NE,44,3.0,4.0,76,0.00,,,0.00,Wunderground v.1.15,2013-08-03 09:23:00,
2013-08-03 04:25:00,60.4,52.8,29.89,NE,41,5.0,5.0,76,0.00,,,0.00,Wunderground v.1.15,2013-08-03 09:25:00,
2013-08-03 04:26:00,60.4,52.8,29.89,NE,41,3.0,5.0,76,0.00,,,0.00,Wunderground v.1.15,2013-08-03 09:26:00,
2013-08-03 04:30:00,60.2,52.6,29.90,NNE,30,3.0,3.0,76,0.00,,,0.00,Wunderground v.1.15,2013-08-03 09:30:00,
2013-08-03 04:31:00,60.2,52.6,29.90,NNE,30,4.0,5.0,76,0.00,,,0.00,Wunderground v.1.15,2013-08-03 09:31:00,
2013-08-03 04:32:00,60.2,52.6,29.90,NNE,30,4.0,5.0,76,0.00,,,0.00,Wunderground v.1.15,2013-08-03 09:32:00,
2013-08-03 04:34:00,60.2,52.6,29.90,NNE,30,4.0,5.0,76,0.00,,,0.00,Wunderground v.1.15,2013-08-03 09:34:00,
2013-08-03 04:35:00,60.1,52.5,29.90,NNE,30,3.0,5.0,76,0.00,,,0.00,Wunderground v.1.15,2013-08-03 09:35:00,
2013-08-03 04:36:00,60.1,52.9,29.90,NNE,30,4.0,5.0,77,0.00,,,0.00,Wunderground v.1.15,2013-08-03 09:36:00,
2013-08-03 04:37:00,60.1,52.9,29.90,NNE,30,4.0,5.0,77,0.00,,,0.00,Wunderground v.1.15,2013-08-03 09:37:00,
2013-08-03 04:40:00,60.1,52.5,29.90,NNE,30,4.0,4.0,76,0.00,,,0.00,Wunderground v.1.15,2013-08-03 09:40:00,
2013-08-03 04:41:00,60.1,52.5,29.90,NNE,30,3.0,4.0,76,0.00,,,0.00,Wunderground v.1.15,2013-08-03 09:41:00,
2013-08-03 04:42:00,60.1,52.5,29.90,NNE,30,4.0,5.0,76,0.00,,,0.00,Wunderground v.1.15,2013-08-03 09:42:00,
2013-08-03 04:45:00,60.1,52.9,29.90,NNE,30,3.0,5.0,77,0.00,,,0.00,Wunderground v.1.15,2013-08-03 09:45:00,
2013-08-03 04:46:00,59.9,52.3,29.90,NE,34,4.0,5.0,76,0.00,,,0.00,Wunderground v.1.15,2013-08-03 09:46:00,
2013-08-03 04:50:00,59.9,52.7,29.90,NE,34,3.0,4.0,77,0.00,,,0.00,Wunderground v.1.15,2013-08-03 09:50:00,
2013-08-03 04:51:00,59.9,52.7,29.90,NNE,30,4.0,5.0,77,0.00,,,0.00,Wunderground v.1.15,2013-08-03 09:51:00,
2013-08-03 04:52:00,59.8,52.6,29.90,NNE,30,3.0,5.0,77,0.00,,,0.00,Wunderground v.1.15,2013-08-03 09:52:00,
2013-08-03 04:55:00,59.6,52.7,29.90,NNE,30,3.0,5.0,78,0.00,,,0.00,Wunderground v.1.15,2013-08-03 09:55:00,
2013-08-03 04:56:00,59.6,52.7,29.90,NE,39,4.0,5.0,78,0.00,,,0.00,Wunderground v.1.15,2013-08-03 09:56:00,
2013-08-03 04:57:00,59.6,52.7,29.90,NE,41,4.0,5.0,78,0.00,,,0.00,Wunderground v.1.15,2013-08-03 09:57:00,
2013-08-03 05:00:00,59.5,52.6,29.90,NE,40,5.0,5.0,78,0.00,,,0.00,Wunderground v.1.15,2013-08-03 10:00:00,
2013-08-03 05:02:00,59.5,52.6,29.90,NE,43,5.0,6.0,78,0.00,,,0.00,Wunderground v.1.15,2013-08-03 10:02:00,
2013-08-03 05:05:00,59.3,52.4,29.90,NE,47,5.0,6.0,78,0.00,,,0.00,Wunderground v.1.15,2013-08-03 10:05:00,
2013-08-03 05:06:00,59.3,52.4,29.90,NE,46,5.0,6.0,78,0.00,,,0.00,Wunderground v.1.15,2013-08-03 10:06:00,
2013-08-03 05:07:00,59.3,52.4,29.90,NNE,27,5.0,6.0,78,0.00,,,0.00,Wunderground v.1.15,2013-08-03 10:07:00,
2013-08-03 05:10:00,59.3,52.1,29.90,NNE,27,5.0,5.0,77,0.00,,,0.00,Wunderground v.1.15,2013-08-03 10:10:00,
2013-08-03 05:11:00,59.3,52.1,29.90,NNE,27,3.0,5.0,77,0.00,,,0.00,Wunderground v.1.15,2013-08-03 10:11:00,
2013-08-03 05:12:00,59.3,52.1,29.90,NNE,28,5.0,5.0,77,0.00,,,0.00,Wunderground v.1.15,2013-08-03 10:12:00,
2013-08-03 05:15:00,59.2,52.3,29.90,NNE,32,6.0,6.0,78,0.00,,,0.00,Wunderground v.1.15,2013-08-03 10:15:00,
2013-08-03 05:16:00,59.2,52.3,29.90,NE,43,5.0,7.0,78,0.00,,,0.00,Wunderground v.1.15,2013-08-03 10:16:00,
2013-08-03 05:17:00,59.2,52.0,29.90,NNE,29,5.0,7.0,77,0.00,,,0.00,Wunderground v.1.15,2013-08-03 10:17:00,
2013-08-03 05:20:00,59.2,52.0,29.90,NE,46,4.0,6.0,77,0.00,,,0.00,Wunderground v.1.15,2013-08-03 10:20:00,
2013-08-03 05:21:00,59.3,52.1,29.90,NE,44,6.0,6.0,77,0.00,,,0.00,Wunderground v.1.15,2013-08-03 10:21:00,
2013-08-03 05:22:00,59.3,52.1,29.90,NE,47,3.0,6.0,77,0.00,,,0.00,Wunderground v.1.15,2013-08-03 10:22:00,
2013-08-03 05:23:00,59.3,52.1,29.90,NE,52,4.0,6.0,77,0.00,,,0.00,Wunderground v.1.15,2013-08-03 10:23:00,
2013-08-03 05:26:00,59.3,51.7,29.90,NE,42,5.0,7.0,76,0.00,,,0.00,Wunderground v.1.15,2013-08-03 10:26:00,
2013-08-03 05:27:00,59.3,51.7,29.90,NE,43,5.0,7.0,76,0.00,,,0.00,Wunderground v.1.15,2013-08-03 10:27:00,
2013-08-03 05:30:00,59.5,51.9,29.90,NE,39,5.0,5.0,76,0.00,,,0.00,Wunderground v.1.15,2013-08-03 10:30:00,
2013-08-03 05:32:00,59.5,51.9,29.90,NE,34,4.0,6.0,76,0.00,,,0.00,Wunderground v.1.15,2013-08-03 10:32:00,
2013-08-03 05:33:00,59.5,51.9,29.90,NNE,33,4.0,6.0,76,0.00,,,0.00,Wunderground v.1.15,2013-08-03 10:33:00,
2013-08-03 05:35:00,59.5,51.9,29.90,NE,38,4.0,6.0,76,0.00,,,0.00,Wunderground v.1.15,2013-08-03 10:35:00,
2013-08-03 05:36:00,59.5,51.9,29.90,NE,38,3.0,6.0,76,0.00,,,0.00,Wunderground v.1.15,2013-08-03 10:36:00,
2013-08-03 05:39:00,59.5,51.9,29.90,NE,41,5.0,5.0,76,0.00,,,0.00,Wunderground v.1.15,2013-08-03 10:39:00,
2013-08-03 05:40:00,59.5,51.9,29.90,NE,41,5.0,5.0,76,0.00,,,0.00,Wunderground v.1.15,2013-08-03 10:40:00,
2013-08-03 05:41:00,59.5,51.9,29.91,NE,37,5.0,6.0,76,0.00,,,0.00,Wunderground v.1.15,2013-08-03 10:41:00,
2013-08-03 05:45:00,59.3,51.7,29.91,NE,42,4.0,6.0,76,0.00,,,0.00,Wunderground v.1.15,2013-08-03 10:45:00,
2013-08-03 05:47:00,59.3,52.1,29.91,NE,44,3.0,6.0,77,0.00,,,0.00,Wunderground v.1.15,2013-08-03 10:47:00,
2013-08-03 05:50:00,59.2,52.0,29.91,NE,44,4.0,4.0,77,0.00,,,0.00,Wunderground v.1.15,2013-08-03 10:50:00,
2013-08-03 05:51:00,59.2,52.0,29.91,NE,44,3.0,4.0,77,0.00,,,0.00,Wunderground v.1.15,2013-08-03 10:51:00,
2013-08-03 05:52:00,59.2,52.0,29.91,NE,44,3.0,4.0,77,0.00,,,0.00,Wunderground v.1.15,2013-08-03 10:52:00,
2013-08-03 05:55:00,59.0,51.8,29.91,NE,46,4.0,4.0,77,0.00,,,0.00,Wunderground v.1.15,2013-08-03 10:55:00,
2013-08-03 05:56:00,59.0,51.8,29.91,NE,42,4.0,4.0,77,0.00,,,0.00,Wunderground v.1.15,2013-08-03 10:56:00,
2013-08-03 05:57:00,59.0,51.8,29.91,NE,41,4.0,5.0,77,0.00,,,0.00,Wunderground v.1.15,2013-08-03 10:57:00,
2013-08-03 06:00:00,58.9,52.1,29.91,NE,47,5.0,5.0,78,0.00,,,0.00,Wunderground v.1.15,2013-08-03 11:00:00,
2013-08-03 06:01:00,58.9,52.1,29.91,NE,41,6.0,6.0,78,0.00,,,0.00,Wunderground v.1.15,2013-08-03 11:01:00,
2013-08-03 06:05:00,58.9,52.1,29.91,NE,41,6.0,6.0,78,0.00,,,0.00,Wunderground v.1.15,2013-08-03 11:05:00,
2013-08-03 06:06:00,58.9,52.1,29.91,NE,49,4.0,6.0,78,0.00,,,0.00,Wunderground v.1.15,2013-08-03 11:06:00,
2013-08-03 06:10:00,58.9,52.1,29.91,NE,48,5.0,6.0,78,0.00,,,0.00,Wunderground v.1.15,2013-08-03 11:10:00,
2013-08-03 06:11:00,58.9,52.1,29.91,NE,55,5.0,6.0,78,0.00,,,0.00,Wunderground v.1.15,2013-08-03 11:11:00,
2013-08-03 06:12:00,58.9,52.1,29.91,NNE,32,3.0,6.0,78,0.00,,,0.00,Wunderground v.1.15,2013-08-03 11:12:00,
2013-08-03 06:16:00,58.9,51.7,29.91,NE,45,5.0,6.0,77,0.00,,,0.00,Wunderground v.1.15,2013-08-03 11:16:00,
2013-08-03 06:17:00,58.9,51.7,29.91,NE,46,6.0,6.0,77,0.00,,,0.00,Wunderground v.1.15,2013-08-03 11:17:00,
2013-08-03 06:20:00,58.9,51.7,29.91,NE,45,5.0,5.0,77,0.00,,,0.00,Wunderground v.1.15,2013-08-03 11:20:00,
2013-08-03 06:22:00,58.9,51.7,29.91,NE,42,5.0,5.0,77,0.00,,,0.00,Wunderground v.1.15,2013-08-03 11:22:00,
2013-08-03 06:24:00,59.0,51.8,29.91,NE,47,5.0,6.0,77,0.00,,,0.00,Wunderground v.1.15,2013-08-03 11:24:00,
2013-08-03 06:26:00,59.0,51.8,29.92,NE,51,5.0,6.0,77,0.00,,,0.00,Wunderground v.1.15,2013-08-03 11:26:00,
2013-08-03 06:27:00,59.0,51.8,29.92,NE,34,5.0,6.0,77,0.00,,,0.00,Wunderground v.1.15,2013-08-03 11:27:00,
2013-08-03 06:30:00,59.0,51.8,29.92,NE,40,5.0,5.0,77,0.00,,,0.00,Wunderground v.1.15,2013-08-03 11:30:00,
2013-08-03 06:32:00,59.0,51.8,29.92,NE,35,6.0,6.0,77,0.00,,,0.00,Wunderground v.1.15,2013-08-03 11:32:00,
2013-08-03 06:34:00,59.0,51.4,29.92,NE,34,4.0,6.0,76,0.00,,,0.00,Wunderground v.1.15,2013-08-03 11:34:00,
2013-08-03 06:35:00,59.2,51.6,29.92,NNE,32,4.0,6.0,76,0.00,,,0.00,Wunderground v.1.15,2013-08-03 11:35:00,
2013-08-03 06:36:00,59.2,51.6,29.92,NE,44,5.0,6.0,76,0.00,,,0.00,Wunderground v.1.15,2013-08-03 11:36:00,
2013-08-03 06:41:00,59.3,51.7,29.92,NNE,32,4.0,4.0,76,0.00,,,0.00,Wunderground v.1.15,2013-08-03 11:41:00,
2013-08-03 06:42:00,59.5,51.9,29.92,NE,35,4.0,4.0,76,0.00,,,0.00,Wunderground v.1.15,2013-08-03 11:42:00,
2013-08-03 06:46:00,59.8,51.9,29.92,NE,35,3.0,5.0,75,0.00,,,0.00,Wunderground v.1.15,2013-08-03 11:46:00,
2013-08-03 06:47:00,59.9,52.0,29.92,NE,35,4.0,5.0,75,0.00,,,0.00,Wunderground v.1.15,2013-08-03 11:47:00,
2013-08-03 06:51:00,60.2,52.2,29.92,NE,35,4.0,5.0,75,0.00,,,0.00,Wunderground v.1.15,2013-08-03 11:51:00,
2013-08-03 06:52:00,60.2,52.2,29.92,NE,35,3.0,5.0,75,0.00,,,0.00,Wunderground v.1.15,2013-08-03 11:52:00,
2013-08-03 06:57:00,60.7,52.4,29.92,NE,35,3.0,5.0,74,0.00,,,0.00,Wunderground v.1.15,2013-08-03 11:57:00,
2013-08-03 07:00:00,61.0,52.7,29.92,NE,35,3.0,4.0,74,0.00,,,0.00,Wunderground v.1.15,2013-08-03 12:00:00,
2013-08-03 07:01:00,61.0,52.3,29.92,NE,35,1.0,4.0,73,0.00,,,0.00,Wunderground v.1.15,2013-08-03 12:01:00,
2013-08-03 07:02:00,61.2,52.5,29.92,NE,37,3.0,4.0,73,0.00,,,0.00,Wunderground v.1.15,2013-08-03 12:02:00,
2013-08-03 07:06:00,61.5,52.4,29.92,NE,46,3.0,5.0,72,0.00,,,0.00,Wunderground v.1.15,2013-08-03 12:06:00,
2013-08-03 07:08:00,61.6,52.5,29.92,NE,49,4.0,5.0,72,0.00,,,0.00,Wunderground v.1.15,2013-08-03 12:08:00,
2013-08-03 07:11:00,61.8,52.7,29.93,NE,49,2.0,3.0,72,0.00,,,0.00,Wunderground v.1.15,2013-08-03 12:11:00,
2013-08-03 07:12:00,62.0,52.9,29.93,NE,49,1.0,3.0,72,0.00,,,0.00,Wunderground v.1.15,2013-08-03 12:12:00,
2013-08-03 07:15:00,62.1,53.0,29.93,NE,49,2.0,3.0,72,0.00,,,0.00,Wunderground v.1.15,2013-08-03 12:15:00,
2013-08-03 07:17:00,62.3,53.2,29.93,NE,49,3.0,3.0,72,0.00,,,0.00,Wunderground v.1.15,2013-08-03 12:17:00,
2013-08-03 07:20:00,62.6,53.4,29.93,NE,46,2.0,3.0,72,0.00,,,0.00,Wunderground v.1.15,2013-08-03 12:20:00,
2013-08-03 07:21:00,62.6,53.4,29.93,NE,46,4.0,4.0,72,0.00,,,0.00,Wunderground v.1.15,2013-08-03 12:21:00,
2013-08-03 07:22:00,62.7,53.2,29.93,NE,45,3.0,5.0,71,0.00,,,0.00,Wunderground v.1.15,2013-08-03 12:22:00,
2013-08-03 07:25:00,62.9,53.0,29.93,NE,45,3.0,5.0,70,0.00,,,0.00,Wunderground v.1.15,2013-08-03 12:25:00,
2013-08-03 07:26:00,62.9,53.0,29.93,NE,45,0.0,5.0,70,0.00,,,0.00,Wunderground v.1.15,2013-08-03 12:26:00,
2013-08-03 07:30:00,63.1,53.2,29.93,NE,44,1.0,2.0,70,0.00,,,0.00,Wunderground v.1.15,2013-08-03 12:30:00,
2013-08-03 07:31:00,63.2,52.9,29.93,NE,44,2.0,2.0,69,0.00,,,0.00,Wunderground v.1.15,2013-08-03 12:31:00,
2013-08-03 07:34:00,63.2,52.9,29.93,NE,34,3.0,5.0,69,0.00,,,0.00,Wunderground v.1.15,2013-08-03 12:34:00,
2013-08-03 07:35:00,63.4,53.0,29.93,NE,34,3.0,5.0,69,0.00,,,0.00,Wunderground v.1.15,2013-08-03 12:35:00,
2013-08-03 07:37:00,63.4,53.0,29.93,NE,37,5.0,5.0,69,0.00,,,0.00,Wunderground v.1.15,2013-08-03 12:37:00,
2013-08-03 07:38:00,63.5,52.7,29.93,NE,37,3.0,5.0,68,0.00,,,0.00,Wunderground v.1.15,2013-08-03 12:38:00,
2013-08-03 07:40:00,63.7,52.9,29.93,NE,37,2.0,4.0,68,0.00,,,0.00,Wunderground v.1.15,2013-08-03 12:40:00,
2013-08-03 07:42:00,63.7,52.9,29.93,NE,37,3.0,4.0,68,0.00,,,0.00,Wunderground v.1.15,2013-08-03 12:42:00,
2013-08-03 07:45:00,64.0,52.4,29.93,NNE,32,4.0,4.0,66,0.00,,,0.00,Wunderground v.1.15,2013-08-03 12:45:00,
2013-08-03 07:46:00,64.0,52.4,29.93,NNE,32,3.0,4.0,66,0.00,,,0.00,Wunderground v.1.15,2013-08-03 12:46:00,
2013-08-03 07:47:00,64.2,52.2,29.93,NNE,32,3.0,4.0,65,0.00,,,0.00,Wunderground v.1.15,2013-08-03 12:47:00,
2013-08-03 07:50:00,64.3,52.3,29.93,NNE,32,2.0,3.0,65,0.00,,,0.00,Wunderground v.1.15,2013-08-03 12:50:00,
2013-08-03 07:52:00,64.5,52.9,29.93,NNE,32,3.0,3.0,66,0.00,,,0.00,Wunderground v.1.15,2013-08-03 12:52:00,
2013-08-03 07:54:00,64.7,53.1,29.93,NNE,32,1.0,3.0,66,0.00,,,0.00,Wunderground v.1.15,2013-08-03 12:54:00,
2013-08-03 07:55:00,64.7,53.1,29.93,NNE,32,1.0,3.0,66,0.00,,,0.00,Wunderground v.1.15,2013-08-03 12:55:00,
2013-08-03 07:56:00,64.7,53.1,29.93,NNE,32,2.0,3.0,66,0.00,,,0.00,Wunderground v.1.15,2013-08-03 12:56:00,
2013-08-03 07:57:00,64.8,52.8,29.93,NNE,32,3.0,3.0,65,0.00,,,0.00,Wunderground v.1.15,2013-08-03 12:57:00,
2013-08-03 08:00:00,65.0,53.4,29.93,NNE,32,2.0,2.0,66,0.00,,,0.00,Wunderground v.1.15,2013-08-03 13:00:00,
2013-08-03 08:01:00,65.2,53.6,29.93,NNE,32,2.0,2.0,66,0.00,,,0.00,Wunderground v.1.15,2013-08-03 13:01:00,
2013-08-03 08:05:00,65.5,53.8,29.93,NNE,32,2.0,2.0,66,0.00,,,0.00,Wunderground v.1.15,2013-08-03 13:05:00,
2013-08-03 08:07:00,65.6,53.5,29.93,NNE,32,0.0,2.0,65,0.00,,,0.00,Wunderground v.1.15,2013-08-03 13:07:00,
2013-08-03 08:10:00,66.0,53.5,29.93,NNE,32,0.0,2.0,64,0.00,,,0.00,Wunderground v.1.15,2013-08-03 13:10:00,
2013-08-03 08:11:00,66.0,53.5,29.93,NNE,32,2.0,2.0,64,0.00,,,0.00,Wunderground v.1.15,2013-08-03 13:11:00,
2013-08-03 08:15:00,66.3,53.8,29.94,NNE,32,2.0,3.0,64,0.00,,,0.00,Wunderground v.1.15,2013-08-03 13:15:00,
2013-08-03 08:16:00,66.4,53.8,29.94,NNE,32,2.0,3.0,64,0.00,,,0.00,Wunderground v.1.15,2013-08-03 13:16:00,
2013-08-03 08:17:00,66.4,52.5,29.94,NE,34,4.0,4.0,61,0.00,,,0.00,Wunderground v.1.15,2013-08-03 13:17:00,
2013-08-03 08:22:00,66.8,53.4,29.94,NNE,15,4.0,4.0,62,0.00,,,0.00,Wunderground v.1.15,2013-08-03 13:22:00,
2013-08-03 08:23:00,66.8,52.5,29.94,NNE,15,3.0,4.0,60,0.00,,,0.00,Wunderground v.1.15,2013-08-03 13:23:00,
2013-08-03 08:25:00,66.9,52.6,29.94,NNE,20,4.0,5.0,60,0.00,,,0.00,Wunderground v.1.15,2013-08-03 13:25:00,
2013-08-03 08:27:00,66.9,52.6,29.94,NNE,32,1.0,5.0,60,0.00,,,0.00,Wunderground v.1.15,2013-08-03 13:27:00,
2013-08-03 08:30:00,67.1,52.7,29.94,NNE,32,1.0,3.0,60,0.00,,,0.00,Wunderground v.1.15,2013-08-03 13:30:00,
2013-08-03 08:32:00,67.3,52.9,29.94,NNE,32,3.0,3.0,60,0.00,,,0.00,Wunderground v.1.15,2013-08-03 13:32:00,
2013-08-03 08:35:00,67.4,53.0,29.94,NNE,32,4.0,4.0,60,0.00,,,0.00,Wunderground v.1.15,2013-08-03 13:35:00,
2013-08-03 08:36:00,67.6,52.8,29.94,NNE,32,3.0,5.0,59,0.00,,,0.00,Wunderground v.1.15,2013-08-03 13:36:00,
2013-08-03 08:39:00,67.9,53.0,29.94,NNE,32,2.0,2.0,59,0.00,,,0.00,Wunderground v.1.15,2013-08-03 13:39:00,
2013-08-03 08:40:00,68.1,53.7,29.94,North,4,5.0,5.0,60,0.00,,,0.00,Wunderground v.1.15,2013-08-03 13:40:00,
2013-08-03 08:41:00,68.1,53.2,29.94,North,3,6.0,6.0,59,0.00,,,0.00,Wunderground v.1.15,2013-08-03 13:41:00,
2013-08-03 08:42:00,68.1,52.3,29.94,NE,41,5.0,6.0,57,0.00,,,0.00,Wunderground v.1.15,2013-08-03 13:42:00,
2013-08-03 08:45:00,68.3,52.9,29.94,North,1,4.0,6.0,58,0.00,,,0.00,Wunderground v.1.15,2013-08-03 13:45:00,
2013-08-03 08:46:00,68.3,52.9,29.94,North,3,3.0,6.0,58,0.00,,,0.00,Wunderground v.1.15,2013-08-03 13:46:00,
2013-08-03 08:47:00,68.3,53.4,29.94,North,4,3.0,6.0,59,0.00,,,0.00,Wunderground v.1.15,2013-08-03 13:47:00,
2013-08-03 08:48:00,68.3,53.4,29.94,North,4,3.0,6.0,59,0.00,,,0.00,Wunderground v.1.15,2013-08-03 13:48:00,
2013-08-03 08:51:00,68.4,52.1,29.94,North,6,2.0,3.0,56,0.00,,,0.00,Wunderground v.1.15,2013-08-03 13:51:00,
2013-08-03 08:52:00,68.4,51.6,29.94,North,6,2.0,3.0,55,0.00,,,0.00,Wunderground v.1.15,2013-08-03 13:52:00,
2013-08-03 08:53:00,68.4,52.6,29.94,North,9,2.0,4.0,57,0.00,,,0.00,Wunderground v.1.15,2013-08-03 13:53:00,
2013-08-03 08:55:00,68.8,53.4,29.94,North,9,4.0,4.0,58,0.00,,,0.00,Wunderground v.1.15,2013-08-03 13:55:00,
2013-08-03 08:57:00,68.9,53.0,29.94,North,9,2.0,4.0,57,0.00,,,0.00,Wunderground v.1.15,2013-08-03 13:57:00,
2013-08-03 08:58:00,68.9,53.0,29.94,North,9,1.0,4.0,57,0.00,,,0.00,Wunderground v.1.15,2013-08-03 13:58:00,
2013-08-03 09:00:00,69.3,53.9,29.94,North,9,0.0,2.0,58,0.00,,,0.00,Wunderground v.1.15,2013-08-03 14:00:00,
2013-08-03 09:01:00,69.4,54.0,29.94,North,9,2.0,2.0,58,0.00,,,0.00,Wunderground v.1.15,2013-08-03 14:01:00,
2013-08-03 09:05:00,69.6,52.7,29.94,NE,49,2.0,3.0,55,0.00,,,0.00,Wunderground v.1.15,2013-08-03 14:05:00,
2013-08-03 09:06:00,69.6,52.2,29.94,NE,49,2.0,3.0,54,0.00,,,0.00,Wunderground v.1.15,2013-08-03 14:06:00,
2013-08-03 09:07:00,69.6,52.2,29.94,NE,50,2.0,3.0,54,0.00,,,0.00,Wunderground v.1.15,2013-08-03 14:07:00,
2013-08-03 09:11:00,69.9,54.0,29.94,NNE,17,3.0,5.0,57,0.00,,,0.00,Wunderground v.1.15,2013-08-03 14:11:00,
2013-08-03 09:12:00,69.9,54.0,29.94,NNE,17,2.0,5.0,57,0.00,,,0.00,Wunderground v.1.15,2013-08-03 14:12:00,
2013-08-03 09:14:00,69.8,50.3,29.94,NE,37,3.0,5.0,50,0.00,,,0.00,Wunderground v.1.15,2013-08-03 14:14:00,
2013-08-03 09:15:00,69.8,50.9,29.94,NE,37,2.0,5.0,51,0.00,,,0.00,Wunderground v.1.15,2013-08-03 14:15:00,
2013-08-03 09:16:00,69.9,50.4,29.94,NE,37,3.0,5.0,50,0.00,,,0.00,Wunderground v.1.15,2013-08-03 14:16:00,
2013-08-03 09:17:00,69.9,50.4,29.94,NE,37,3.0,5.0,50,0.00,,,0.00,Wunderground v.1.15,2013-08-03 14:17:00,
2013-08-03 09:18:00,69.9,51.5,29.94,NE,37,2.0,5.0,52,0.00,,,0.00,Wunderground v.1.15,2013-08-03 14:18:00,
2013-08-03 09:20:00,70.1,51.7,29.94,NE,37,2.0,3.0,52,0.00,,,0.00,Wunderground v.1.15,2013-08-03 14:20:00,
2013-08-03 09:21:00,70.1,51.7,29.94,NE,34,5.0,5.0,52,0.00,,,0.00,Wunderground v.1.15,2013-08-03 14:21:00,
2013-08-03 09:25:00,70.1,50.6,29.94,NNE,22,2.0,5.0,50,0.00,,,0.00,Wunderground v.1.15,2013-08-03 14:25:00,
2013-08-03 09:26:00,70.3,50.8,29.94,NNE,22,2.0,5.0,50,0.00,,,0.00,Wunderground v.1.15,2013-08-03 14:26:00,
2013-08-03 09:30:00,70.4,50.9,29.94,NNE,15,3.0,4.0,50,0.00,,,0.00,Wunderground v.1.15,2013-08-03 14:30:00,
2013-08-03 09:32:00,70.6,51.1,29.94,NNE,16,2.0,5.0,50,0.00,,,0.00,Wunderground v.1.15,2013-08-03 14:32:00,
2013-08-03 09:35:00,70.4,50.9,29.94,NNE,30,3.0,6.0,50,0.00,,,0.00,Wunderground v.1.15,2013-08-03 14:35:00,
2013-08-03 09:37:00,70.6,51.6,29.94,NNE,30,3.0,6.0,51,0.00,,,0.00,Wunderground v.1.15,2013-08-03 14:37:00,
2013-08-03 09:38:00,70.6,50.5,29.94,NNE,30,2.0,6.0,49,0.00,,,0.00,Wunderground v.1.15,2013-08-03 14:38:00,
2013-08-03 09:40:00,70.8,50.7,29.94,NNE,13,3.0,3.0,49,0.00,,,0.00,Wunderground v.1.15,2013-08-03 14:40:00,
2013-08-03 09:41:00,70.8,50.7,29.94,NNE,13,3.0,4.0,49,0.00,,,0.00,Wunderground v.1.15,2013-08-03 14:41:00,
2013-08-03 09:45:00,71.1,51.5,29.95,NE,41,1.0,5.0,50,0.00,,,0.00,Wunderground v.1.15,2013-08-03 14:45:00,
2013-08-03 09:46:00,71.1,51.5,29.95,NE,35,2.0,5.0,50,0.00,,,0.00,Wunderground v.1.15,2013-08-03 14:46:00,
2013-08-03 09:50:00,71.5,52.4,29.95,ENE,59,4.0,4.0,51,0.00,,,0.00,Wunderground v.1.15,2013-08-03 14:50:00,
2013-08-03 09:51:00,71.5,49.0,29.95,NNE,30,2.0,4.0,45,0.00,,,0.00,Wunderground v.1.15,2013-08-03 14:51:00,
2013-08-03 09:54:00,71.5,50.2,29.95,North,359,3.0,5.0,47,0.00,,,0.00,Wunderground v.1.15,2013-08-03 14:54:00,
2013-08-03 09:55:00,71.5,50.2,29.95,North,353,4.0,5.0,47,0.00,,,0.00,Wunderground v.1.15,2013-08-03 14:55:00,
2013-08-03 09:57:00,71.5,49.6,29.95,North,349,4.0,5.0,46,0.00,,,0.00,Wunderground v.1.15,2013-08-03 14:57:00,
2013-08-03 09:58:00,71.5,49.6,29.95,North,357,3.0,5.0,46,0.00,,,0.00,Wunderground v.1.15,2013-08-03 14:58:00,
2013-08-03 10:00:00,71.5,51.3,29.95,North,0,4.0,4.0,49,0.00,,,0.00,Wunderground v.1.15,2013-08-03 15:00:00,
2013-08-03 10:01:00,71.5,51.3,29.95,North,8,4.0,5.0,49,0.00,,,0.00,Wunderground v.1.15,2013-08-03 15:01:00,
2013-08-03 10:02:00,71.5,50.8,29.95,North,0,5.0,6.0,48,0.00,,,0.00,Wunderground v.1.15,2013-08-03 15:02:00,
2013-08-03 10:06:00,71.5,50.8,29.95,North,0,6.0,6.0,48,0.00,,,0.00,Wunderground v.1.15,2013-08-03 15:06:00,
2013-08-03 10:07:00,71.5,50.8,29.95,North,358,5.0,7.0,48,0.00,,,0.00,Wunderground v.1.15,2013-08-03 15:07:00,
2013-08-03 10:11:00,71.5,50.2,29.95,NE,39,2.0,4.0,47,0.00,,,0.00,Wunderground v.1.15,2013-08-03 15:11:00,
2013-08-03 10:15:00,71.3,48.9,29.96,NE,39,4.0,9.0,45,0.00,,,0.00,Wunderground v.1.15,2013-08-03 15:15:00,
2013-08-03 10:16:00,71.3,50.6,29.96,NE,34,3.0,9.0,48,0.00,,,0.00,Wunderground v.1.15,2013-08-03 15:16:00,
2013-08-03 10:17:00,71.3,50.6,29.96,North,11,4.0,9.0,48,0.00,,,0.00,Wunderground v.1.15,2013-08-03 15:17:00,
2013-08-03 10:20:00,71.5,50.2,29.96,North,0,5.0,5.0,47,0.00,,,0.00,Wunderground v.1.15,2013-08-03 15:20:00,
2013-08-03 10:21:00,71.6,52.0,29.96,North,350,3.0,5.0,50,0.00,,,0.00,Wunderground v.1.15,2013-08-03 15:21:00,
2013-08-03 10:22:00,71.6,50.3,29.96,NNE,32,5.0,6.0,47,0.00,,,0.00,Wunderground v.1.15,2013-08-03 15:22:00,
2013-08-03 10:23:00,71.6,50.3,29.96,North,4,5.0,6.0,47,0.00,,,0.00,Wunderground v.1.15,2013-08-03 15:23:00,
2013-08-03 10:25:00,71.8,49.9,29.96,North,0,1.0,6.0,46,0.00,,,0.00,Wunderground v.1.15,2013-08-03 15:25:00,
2013-08-03 10:26:00,71.8,49.9,29.96,NW,322,3.0,6.0,46,0.00,,,0.00,Wunderground v.1.15,2013-08-03 15:26:00,
2013-08-03 10:28:00,72.0,51.2,29.96,North,358,7.0,10.0,48,0.00,,,0.00,Wunderground v.1.15,2013-08-03 15:28:00,
2013-08-03 10:30:00,72.0,50.7,29.96,NNE,30,5.0,10.0,47,0.00,,,0.00,Wunderground v.1.15,2013-08-03 15:30:00,
2013-08-03 10:31:00,71.8,49.3,29.96,NNE,30,4.0,5.0,45,0.00,,,0.00,Wunderground v.1.15,2013-08-03 15:31:00,
2013-08-03 10:33:00,71.8,49.3,29.96,NNW,342,4.0,5.0,45,0.00,,,0.00,Wunderground v.1.15,2013-08-03 15:33:00,
2013-08-03 10:35:00,72.0,49.5,29.96,North,359,8.0,8.0,45,0.00,,,0.00,Wunderground v.1.15,2013-08-03 15:35:00,
2013-08-03 10:36:00,72.0,49.5,29.96,North,0,5.0,9.0,45,0.00,,,0.00,Wunderground v.1.15,2013-08-03 15:36:00,
2013-08-03 10:40:00,72.0,50.7,29.96,North,354,9.0,12.0,47,0.00,,,0.00,Wunderground v.1.15,2013-08-03 15:40:00,
2013-08-03 10:41:00,72.0,50.1,29.96,North,357,10.0,10.0,46,0.00,,,0.00,Wunderground v.1.15,2013-08-03 15:41:00,
2013-08-03 10:42:00,72.0,52.3,29.95,North,11,5.0,11.0,50,0.00,,,0.00,Wunderground v.1.15,2013-08-03 15:42:00,
2013-08-03 10:45:00,72.0,51.8,29.95,NNE,15,11.0,11.0,49,0.00,,,0.00,Wunderground v.1.15,2013-08-03 15:45:00,
2013-08-03 10:46:00,72.0,52.3,29.95,North,0,10.0,11.0,50,0.00,,,0.00,Wunderground v.1.15,2013-08-03 15:46:00,
2013-08-03 10:48:00,72.0,50.7,29.95,North,0,10.0,11.0,47,0.00,,,0.00,Wunderground v.1.15,2013-08-03 15:48:00,
2013-08-03 10:50:00,72.0,51.2,29.95,NNW,334,5.0,8.0,48,0.00,,,0.00,Wunderground v.1.15,2013-08-03 15:50:00,
2013-08-03 10:52:00,72.1,53.0,29.95,NNE,13,9.0,9.0,51,0.00,,,0.00,Wunderground v.1.15,2013-08-03 15:52:00,
2013-08-03 10:55:00,72.3,53.2,29.95,NW,321,5.0,9.0,51,0.00,,,0.00,Wunderground v.1.15,2013-08-03 15:55:00,
2013-08-03 10:56:00,72.5,52.8,29.95,NW,321,3.0,9.0,50,0.00,,,0.00,Wunderground v.1.15,2013-08-03 15:56:00,
2013-08-03 11:00:00,72.7,50.1,29.96,North,0,10.0,10.0,45,0.00,,,0.00,Wunderground v.1.15,2013-08-03 16:00:00,
2013-08-03 11:01:00,72.7,52.4,29.96,North,0,8.0,10.0,49,0.00,,,0.00,Wunderground v.1.15,2013-08-03 16:01:00,
2013-08-03 11:02:00,72.7,50.7,29.96,NNE,15,6.0,10.0,46,0.00,,,0.00,Wunderground v.1.15,2013-08-03 16:02:00,
2013-08-03 11:06:00,72.8,52.0,29.96,North,354,11.0,12.0,48,0.00,,,0.00,Wunderground v.1.15,2013-08-03 16:06:00,
2013-08-03 11:10:00,72.7,50.1,29.96,NNW,348,10.0,10.0,45,0.00,,,0.00,Wunderground v.1.15,2013-08-03 16:10:00,
2013-08-03 11:11:00,72.7,50.1,29.96,North,358,6.0,10.0,45,0.00,,,0.00,Wunderground v.1.15,2013-08-03 16:11:00,
2013-08-03 11:12:00,72.8,52.0,29.96,North,0,5.0,11.0,48,0.00,,,0.00,Wunderground v.1.15,2013-08-03 16:12:00,
2013-08-03 11:15:00,72.8,51.4,29.96,North,6,5.0,11.0,47,0.00,,,0.00,Wunderground v.1.15,2013-08-03 16:15:00,
2013-08-03 11:16:00,72.8,51.4,29.96,NNW,345,4.0,11.0,47,0.00,,,0.00,Wunderground v.1.15,2013-08-03 16:16:00,
2013-08-03 11:17:00,73.0,52.1,29.96,North,0,7.0,11.0,48,0.00,,,0.00,Wunderground v.1.15,2013-08-03 16:17:00,
2013-08-03 11:20:00,73.2,51.8,29.96,NW,326,5.0,7.0,47,0.00,,,0.00,Wunderground v.1.15,2013-08-03 16:20:00,
2013-08-03 11:21:00,73.3,52.4,29.96,North,0,9.0,9.0,48,0.00,,,0.00,Wunderground v.1.15,2013-08-03 16:21:00,
2013-08-03 11:22:00,73.2,51.8,29.96,NW,321,4.0,9.0,47,0.00,,,0.00,Wunderground v.1.15,2013-08-03 16:22:00,
2013-08-03 11:26:00,73.3,52.4,29.96,North,358,4.0,11.0,48,0.00,,,0.00,Wunderground v.1.15,2013-08-03 16:26:00,
2013-08-03 11:27:00,73.2,51.8,29.96,West,263,5.0,11.0,47,0.00,,,0.00,Wunderground v.1.15,2013-08-03 16:27:00,
2013-08-03 11:30:00,72.7,52.4,29.96,NNW,342,8.0,8.0,49,0.00,,,0.00,Wunderground v.1.15,2013-08-03 16:30:00,
2013-08-03 11:35:00,73.0,51.6,29.96,NNE,18,7.0,12.0,47,0.00,,,0.00,Wunderground v.1.15,2013-08-03 16:35:00,
2013-08-03 11:36:00,73.0,51.6,29.96,NE,37,7.0,12.0,47,0.00,,,0.00,Wunderground v.1.15,2013-08-03 16:36:00,
2013-08-03 11:37:00,73.0,50.4,29.96,North,0,6.0,12.0,45,0.00,,,0.00,Wunderground v.1.15,2013-08-03 16:37:00,
2013-08-03 11:38:00,73.0,50.4,29.96,North,354,4.0,12.0,45,0.00,,,0.00,Wunderground v.1.15,2013-08-03 16:38:00,
2013-08-03 11:42:00,73.2,52.3,29.96,NNW,338,3.0,8.0,48,0.00,,,0.00,Wunderground v.1.15,2013-08-03 16:42:00,
2013-08-03 11:43:00,73.3,50.7,29.96,NNE,23,3.0,8.0,45,0.00,,,0.00,Wunderground v.1.15,2013-08-03 16:43:00,
2013-08-03 11:45:00,73.7,53.3,29.96,North,353,6.0,8.0,49,0.00,,,0.00,Wunderground v.1.15,2013-08-03 16:45:00,
2013-08-03 11:48:00,73.9,53.5,29.96,NNW,345,13.0,15.0,49,0.00,,,0.00,Wunderground v.1.15,2013-08-03 16:48:00,
2013-08-03 11:50:00,73.7,51.0,29.96,NW,314,11.0,11.0,45,0.00,,,0.00,Wunderground v.1.15,2013-08-03 16:50:00,
2013-08-03 11:51:00,73.7,51.0,29.96,NW,314,10.0,12.0,45,0.00,,,0.00,Wunderground v.1.15,2013-08-03 16:51:00,
2013-08-03 11:55:00,72.5,51.1,29.96,North,4,6.0,12.0,47,0.00,,,0.00,Wunderground v.1.15,2013-08-03 16:55:00,
2013-08-03 11:56:00,72.5,52.8,29.96,North,0,7.0,12.0,50,0.00,,,0.00,Wunderground v.1.15,2013-08-03 16:56:00,
2013-08-03 11:57:00,72.5,52.2,29.96,North,356,4.0,12.0,49,0.00,,,0.00,Wunderground v.1.15,2013-08-03 16:57:00,
2013-08-03 12:01:00,72.5,51.7,29.96,NNW,333,13.0,13.0,48,0.00,,,0.00,Wunderground v.1.15,2013-08-03 17:01:00,
2013-08-03 12:02:00,72.3,50.9,29.96,NW,316,9.0,13.0,47,0.00,,,0.00,Wunderground v.1.15,2013-08-03 17:02:00,
2013-08-03 12:06:00,71.5,50.8,29.96,NNW,335,11.0,13.0,48,0.00,,,0.00,Wunderground v.1.15,2013-08-03 17:06:00,
2013-08-03 12:07:00,71.3,50.6,29.96,NW,323,9.0,13.0,48,0.00,,,0.00,Wunderground v.1.15,2013-08-03 17:07:00,
2013-08-03 12:09:00,71.1,53.1,29.96,NW,308,5.0,8.0,53,0.00,,,0.00,Wunderground v.1.15,2013-08-03 17:09:00,
2013-08-03 12:12:00,71.6,50.9,29.97,North,358,9.0,9.0,48,0.00,,,0.00,Wunderground v.1.15,2013-08-03 17:12:00,
2013-08-03 12:13:00,71.8,52.2,29.97,North,356,14.0,14.0,50,0.00,,,0.00,Wunderground v.1.15,2013-08-03 17:13:00,
2013-08-03 12:14:00,72.1,51.3,29.97,North,350,10.0,17.0,48,0.00,,,0.00,Wunderground v.1.15,2013-08-03 17:14:00,
2013-08-03 12:15:00,72.3,50.4,29.97,North,1,13.0,17.0,46,0.00,,,0.00,Wunderground v.1.15,2013-08-03 17:15:00,
2013-08-03 12:17:00,72.8,50.8,29.97,NNW,340,10.0,17.0,46,0.00,,,0.00,Wunderground v.1.15,2013-08-03 17:17:00,
2013-08-03 12:20:00,73.3,51.8,29.97,North,358,10.0,10.0,47,0.00,,,0.00,Wunderground v.1.15,2013-08-03 17:20:00,
2013-08-03 12:21:00,73.5,53.2,29.97,North,350,10.0,15.0,49,0.00,,,0.00,Wunderground v.1.15,2013-08-03 17:21:00,
2013-08-03 12:25:00,74.2,52.1,29.97,North,354,9.0,15.0,46,0.00,,,0.00,Wunderground v.1.15,2013-08-03 17:25:00,
2013-08-03 12:26:00,74.2,52.1,29.97,NW,317,9.0,15.0,46,0.00,,,0.00,Wunderground v.1.15,2013-08-03 17:26:00,
2013-08-03 12:27:00,74.4,54.5,29.97,NNW,331,5.0,15.0,50,0.00,,,0.00,Wunderground v.1.15,2013-08-03 17:27:00,
2013-08-03 12:29:00,74.4,54.5,29.97,NW,316,9.0,9.0,50,0.00,,,0.00,Wunderground v.1.15,2013-08-03 17:29:00,
2013-08-03 12:32:00,73.9,53.0,29.97,NW,321,5.0,9.0,48,0.00,,,0.00,Wunderground v.1.15,2013-08-03 17:32:00,
2013-08-03 12:34:00,73.2,52.3,29.97,North,0,17.0,17.0,48,0.00,,,0.00,Wunderground v.1.15,2013-08-03 17:34:00,
2013-08-03 12:37:00,72.7,51.9,29.97,NNW,341,10.0,17.0,48,0.00,,,0.00,Wunderground v.1.15,2013-08-03 17:37:00,
2013-08-03 12:38:00,72.5,53.3,29.97,North,0,10.0,18.0,51,0.00,,,0.00,Wunderground v.1.15,2013-08-03 17:38:00,
2013-08-03 12:39:00,72.1,51.3,29.97,North,349,11.0,11.0,48,0.00,,,0.00,Wunderground v.1.15,2013-08-03 17:39:00,
2013-08-03 12:40:00,72.0,51.2,29.97,North,359,7.0,11.0,48,0.00,,,0.00,Wunderground v.1.15,2013-08-03 17:40:00,
2013-08-03 12:42:00,71.8,51.6,29.98,NNW,334,11.0,11.0,49,0.00,,,0.00,Wunderground v.1.15,2013-08-03 17:42:00,
2013-08-03 12:45:00,72.1,51.9,29.98,NNW,347,9.0,11.0,49,0.00,,,0.00,Wunderground v.1.15,2013-08-03 17:45:00,
2013-08-03 12:47:00,72.7,51.3,29.98,North,0,12.0,15.0,47,0.00,,,0.00,Wunderground v.1.15,2013-08-03 17:47:00,
2013-08-03 12:50:00,73.3,51.8,29.98,NNE,25,10.0,10.0,47,0.00,,,0.00,Wunderground v.1.15,2013-08-03 17:50:00,
2013-08-03 12:52:00,73.9,53.0,29.98,NW,323,12.0,12.0,48,0.00,,,0.00,Wunderground v.1.15,2013-08-03 17:52:00,
2013-08-03 12:55:00,73.9,51.8,29.98,NNW,345,8.0,12.0,46,0.00,,,0.00,Wunderground v.1.15,2013-08-03 17:55:00,
2013-08-03 12:56:00,73.7,52.2,29.97,NNW,335,11.0,12.0,47,0.00,,,0.00,Wunderground v.1.15,2013-08-03 17:56:00,
2013-08-03 13:00:00,72.7,51.9,29.97,North,2,11.0,15.0,48,0.00,,,0.00,Wunderground v.1.15,2013-08-03 18:00:00,
2013-08-03 13:01:00,72.5,51.1,29.97,NNW,347,9.0,15.0,47,0.00,,,0.00,Wunderground v.1.15,2013-08-03 18:01:00,
2013-08-03 13:02:00,72.1,50.2,29.97,North,354,8.0,15.0,46,0.00,,,0.00,Wunderground v.1.15,2013-08-03 18:02:00,
2013-08-03 13:04:00,72.3,50.4,29.97,NNW,345,7.0,15.0,46,0.00,,,0.00,Wunderground v.1.15,2013-08-03 18:04:00,
2013-08-03 13:05:00,72.3,50.4,29.97,NW,323,7.0,15.0,46,0.00,,,0.00,Wunderground v.1.15,2013-08-03 18:05:00,
2013-08-03 13:06:00,72.5,52.8,29.97,NNW,332,7.0,15.0,50,0.00,,,0.00,Wunderground v.1.15,2013-08-03 18:06:00,
2013-08-03 13:08:00,72.8,53.1,29.97,North,359,13.0,15.0,50,0.00,,,0.00,Wunderground v.1.15,2013-08-03 18:08:00,
2013-08-03 13:09:00,73.2,52.9,29.97,NNW,345,15.0,15.0,49,0.00,,,0.00,Wunderground v.1.15,2013-08-03 18:09:00,
2013-08-03 13:11:00,73.3,53.0,29.97,NW,323,9.0,15.0,49,0.00,,,0.00,Wunderground v.1.15,2013-08-03 18:11:00,
2013-08-03 13:12:00,73.2,52.9,29.97,NNW,346,12.0,15.0,49,0.00,,,0.00,Wunderground v.1.15,2013-08-03 18:12:00,
2013-08-03 13:13:00,73.2,52.9,29.97,NNW,348,11.0,15.0,49,0.00,,,0.00,Wunderground v.1.15,2013-08-03 18:13:00,
2013-08-03 13:15:00,72.7,51.9,29.97,NNW,340,10.0,15.0,48,0.00,,,0.00,Wunderground v.1.15,2013-08-03 18:15:00,
2013-08-03 13:17:00,72.3,53.7,29.97,NNW,329,11.0,15.0,52,0.00,,,0.00,Wunderground v.1.15,2013-08-03 18:17:00,
2013-08-03 13:20:00,72.0,54.4,29.97,NNW,334,7.0,9.0,54,0.00,,,0.00,Wunderground v.1.15,2013-08-03 18:20:00,
2013-08-03 13:21:00,72.0,54.4,29.97,NNW,340,4.0,9.0,54,0.00,,,0.00,Wunderground v.1.15,2013-08-03 18:21:00,
2013-08-03 13:22:00,72.1,53.0,29.97,NW,319,4.0,9.0,51,0.00,,,0.00,Wunderground v.1.15,2013-08-03 18:22:00,
2013-08-03 13:25:00,72.8,53.6,29.97,NNW,333,10.0,10.0,51,0.00,,,0.00,Wunderground v.1.15,2013-08-03 18:25:00,
2013-08-03 13:27:00,73.2,50.0,29.97,NNW,331,6.0,12.0,44,0.00,,,0.00,Wunderground v.1.15,2013-08-03 18:27:00,
2013-08-03 13:30:00,73.9,53.0,29.97,North,0,9.0,9.0,48,0.00,,,0.00,Wunderground v.1.15,2013-08-03 18:30:00,
2013-08-03 13:31:00,74.0,53.1,29.97,North,354,13.0,13.0,48,0.00,,,0.00,Wunderground v.1.15,2013-08-03 18:31:00,
2013-08-03 13:32:00,74.0,50.7,29.97,North,351,14.0,16.0,44,0.00,,,0.00,Wunderground v.1.15,2013-08-03 18:32:00,
2013-08-03 13:35:00,74.2,53.2,29.97,NW,315,5.0,16.0,48,0.00,,,0.00,Wunderground v.1.15,2013-08-03 18:35:00,
2013-08-03 13:36:00,74.4,55.1,29.97,NW,316,5.0,16.0,51,0.00,,,0.00,Wunderground v.1.15,2013-08-03 18:36:00,
2013-08-03 13:37:00,74.6,56.9,29.97,North,359,14.0,16.0,54,0.00,,,0.00,Wunderground v.1.15,2013-08-03 18:37:00,
2013-08-03 13:40:00,74.7,53.1,29.97,WNW,297,9.0,11.0,47,0.00,,,0.00,Wunderground v.1.15,2013-08-03 18:40:00,
2013-08-03 13:42:00,74.9,52.1,29.97,NNW,336,9.0,15.0,45,0.00,,,0.00,Wunderground v.1.15,2013-08-03 18:42:00,
2013-08-03 13:45:00,75.1,52.3,29.97,NW,319,6.0,15.0,45,0.00,,,0.00,Wunderground v.1.15,2013-08-03 18:45:00,
2013-08-03 13:46:00,75.1,52.3,29.97,WNW,301,9.0,15.0,45,0.00,,,0.00,Wunderground v.1.15,2013-08-03 18:46:00,
2013-08-03 13:50:00,74.6,53.0,29.97,NNW,335,16.0,16.0,47,0.00,,,0.00,Wunderground v.1.15,2013-08-03 18:50:00,
2013-08-03 13:51:00,74.2,53.2,29.97,NNW,331,12.0,19.0,48,0.00,,,0.00,Wunderground v.1.15,2013-08-03 18:51:00,
2013-08-03 13:55:00,74.2,51.5,29.97,North,0,16.0,19.0,45,0.00,,,0.00,Wunderground v.1.15,2013-08-03 18:55:00,
2013-08-03 13:56:00,74.2,50.3,29.97,NW,326,6.0,19.0,43,0.00,,,0.00,Wunderground v.1.15,2013-08-03 18:56:00,
2013-08-03 13:57:00,74.2,52.7,29.97,NW,307,10.0,19.0,47,0.00,,,0.00,Wunderground v.1.15,2013-08-03 18:57:00,
2013-08-03 13:58:00,74.4,52.9,29.97,NNW,327,7.0,19.0,47,0.00,,,0.00,Wunderground v.1.15,2013-08-03 18:58:00,
2013-08-03 14:02:00,74.9,53.9,29.97,North,0,7.0,13.0,48,0.00,,,0.00,Wunderground v.1.15,2013-08-03 19:02:00,
2013-08-03 14:05:00,75.1,54.6,29.97,NNW,328,16.0,16.0,49,0.00,,,0.00,Wunderground v.1.15,2013-08-03 19:05:00,
2013-08-03 14:07:00,75.1,52.3,29.97,North,354,8.0,16.0,45,0.00,,,0.00,Wunderground v.1.15,2013-08-03 19:07:00,
2013-08-03 14:09:00,75.1,52.3,29.97,NNW,340,6.0,10.0,45,0.00,,,0.00,Wunderground v.1.15,2013-08-03 19:09:00,
2013-08-03 14:10:00,74.9,52.1,29.97,NNW,342,9.0,10.0,45,0.00,,,0.00,Wunderground v.1.15,2013-08-03 19:10:00,
2013-08-03 14:11:00,74.9,52.1,29.97,NNW,328,4.0,10.0,45,0.00,,,0.00,Wunderground v.1.15,2013-08-03 19:11:00,
2013-08-03 14:14:00,74.4,53.4,29.98,NW,317,9.0,10.0,48,0.00,,,0.00,Wunderground v.1.15,2013-08-03 19:14:00,
2013-08-03 14:15:00,74.4,53.4,29.98,North,352,13.0,13.0,48,0.00,,,0.00,Wunderground v.1.15,2013-08-03 19:15:00,
2013-08-03 14:16:00,74.2,53.8,29.98,North,0,12.0,13.0,49,0.00,,,0.00,Wunderground v.1.15,2013-08-03 19:16:00,
2013-08-03 14:18:00,73.9,52.4,29.98,North,354,11.0,13.0,47,0.00,,,0.00,Wunderground v.1.15,2013-08-03 19:18:00,
2013-08-03 14:20:00,73.7,52.8,29.98,NW,318,5.0,12.0,48,0.00,,,0.00,Wunderground v.1.15,2013-08-03 19:20:00,
2013-08-03 14:21:00,73.7,54.4,29.98,NNW,330,11.0,12.0,51,0.00,,,0.00,Wunderground v.1.15,2013-08-03 19:21:00,
2013-08-03 14:22:00,74.0,53.1,29.98,North,358,6.0,12.0,48,0.00,,,0.00,Wunderground v.1.15,2013-08-03 19:22:00,
2013-08-03 14:25:00,74.6,54.2,29.98,North,0,15.0,15.0,49,0.00,,,0.00,Wunderground v.1.15,2013-08-03 19:25:00,
2013-08-03 14:27:00,74.9,54.4,29.98,NW,320,13.0,15.0,49,0.00,,,0.00,Wunderground v.1.15,2013-08-03 19:27:00,
2013-08-03 14:32:00,75.3,53.7,29.98,NNW,327,9.0,14.0,47,0.00,,,0.00,Wunderground v.1.15,2013-08-03 19:32:00,
2013-08-03 14:37:00,75.1,52.3,29.98,NNW,334,10.0,17.0,45,0.00,,,0.00,Wunderground v.1.15,2013-08-03 19:37:00,
2013-08-03 14:40:00,74.9,52.1,29.98,North,0,15.0,15.0,45,0.00,,,0.00,Wunderground v.1.15,2013-08-03 19:40:00,
2013-08-03 14:44:00,74.4,51.7,29.98,North,0,12.0,17.0,45,0.00,,,0.00,Wunderground v.1.15,2013-08-03 19:44:00,
2013-08-03 14:45:00,74.2,51.5,29.98,North,8,11.0,17.0,45,0.00,,,0.00,Wunderground v.1.15,2013-08-03 19:45:00,
2013-08-03 14:46:00,74.0,52.5,29.98,North,0,14.0,17.0,47,0.00,,,0.00,Wunderground v.1.15,2013-08-03 19:46:00,
2013-08-03 14:51:00,73.3,51.8,29.98,North,349,10.0,16.0,47,0.00,,,0.00,Wunderground v.1.15,2013-08-03 19:51:00,
2013-08-03 14:52:00,73.3,51.3,29.98,North,1,13.0,17.0,46,0.00,,,0.00,Wunderground v.1.15,2013-08-03 19:52:00,
2013-08-03 14:55:00,73.5,52.6,29.98,NNW,335,9.0,17.0,48,0.00,,,0.00,Wunderground v.1.15,2013-08-03 19:55:00,
2013-08-03 14:56:00,73.5,52.6,29.98,NNW,345,12.0,17.0,48,0.00,,,0.00,Wunderground v.1.15,2013-08-03 19:56:00,
2013-08-03 14:57:00,73.7,52.8,29.97,NW,326,11.0,17.0,48,0.00,,,0.00,Wunderground v.1.15,2013-08-03 19:57:00,
2013-08-03 15:00:00,73.3,54.1,29.97,North,356,12.0,12.0,51,0.00,,,0.00,Wunderground v.1.15,2013-08-03 20:00:00,
2013-08-03 15:02:00,73.2,53.4,29.97,North,0,12.0,16.0,50,0.00,,,0.00,Wunderground v.1.15,2013-08-03 20:02:00,
2013-08-03 15:05:00,73.3,53.5,29.97,North,0,6.0,16.0,50,0.00,,,0.00,Wunderground v.1.15,2013-08-03 20:05:00,
2013-08-03 15:07:00,73.3,53.0,29.97,North,358,10.0,19.0,49,0.00,,,0.00,Wunderground v.1.15,2013-08-03 20:07:00,
2013-08-03 15:09:00,73.3,53.0,29.97,NNW,342,14.0,19.0,49,0.00,,,0.00,Wunderground v.1.15,2013-08-03 20:09:00,
2013-08-03 15:10:00,73.3,53.0,29.97,North,353,13.0,16.0,49,0.00,,,0.00,Wunderground v.1.15,2013-08-03 20:10:00,
2013-08-03 15:12:00,73.5,54.8,29.98,North,356,10.0,16.0,52,0.00,,,0.00,Wunderground v.1.15,2013-08-03 20:12:00,
2013-08-03 15:16:00,74.2,54.4,29.98,NNW,338,6.0,16.0,50,0.00,,,0.00,Wunderground v.1.15,2013-08-03 20:16:00,
2013-08-03 15:17:00,74.6,55.3,29.98,North,359,6.0,16.0,51,0.00,,,0.00,Wunderground v.1.15,2013-08-03 20:17:00,
2013-08-03 15:21:00,74.9,55.6,29.98,NNW,340,6.0,9.0,51,0.00,,,0.00,Wunderground v.1.15,2013-08-03 20:21:00,
2013-08-03 15:22:00,74.9,57.1,29.98,North,0,15.0,17.0,54,0.00,,,0.00,Wunderground v.1.15,2013-08-03 20:22:00,
2013-08-03 15:26:00,74.4,53.4,29.98,NNW,336,16.0,17.0,48,0.00,,,0.00,Wunderground v.1.15,2013-08-03 20:26:00,
2013-08-03 15:27:00,74.4,53.4,29.98,NNW,342,13.0,17.0,48,0.00,,,0.00,Wunderground v.1.15,2013-08-03 20:27:00,
2013-08-03 15:28:00,74.2,53.8,29.98,North,349,21.0,21.0,49,0.00,,,0.00,Wunderground v.1.15,2013-08-03 20:28:00,
2013-08-03 15:29:00,74.0,53.6,29.98,NNW,332,7.0,12.0,49,0.00,,,0.00,Wunderground v.1.15,2013-08-03 20:29:00,
2013-08-03 15:32:00,73.9,53.0,29.98,North,353,15.0,15.0,48,0.00,,,0.00,Wunderground v.1.15,2013-08-03 20:32:00,
2013-08-03 15:35:00,73.7,52.8,29.98,North,0,12.0,16.0,48,0.00,,,0.00,Wunderground v.1.15,2013-08-03 20:35:00,
2013-08-03 15:40:00,73.5,53.2,29.98,North,357,12.0,12.0,49,0.00,,,0.00,Wunderground v.1.15,2013-08-03 20:40:00,
2013-08-03 15:41:00,73.3,53.0,29.98,NNW,340,12.0,14.0,49,0.00,,,0.00,Wunderground v.1.15,2013-08-03 20:41:00,
2013-08-03 15:42:00,73.2,51.8,29.98,NNW,347,10.0,15.0,47,0.00,,,0.00,Wunderground v.1.15,2013-08-03 20:42:00,
2013-08-03 15:46:00,73.3,51.3,29.98,NW,316,15.0,15.0,46,0.00,,,0.00,Wunderground v.1.15,2013-08-03 20:46:00,
2013-08-03 15:47:00,73.3,52.4,29.98,NW,309,6.0,15.0,48,0.00,,,0.00,Wunderground v.1.15,2013-08-03 20:47:00,
2013-08-03 15:48:00,73.3,52.4,29.98,NW,309,6.0,15.0,48,0.00,,,0.00,Wunderground v.1.15,2013-08-03 20:48:00,
2013-08-03 15:52:00,73.5,53.2,29.98,NNW,336,16.0,16.0,49,0.00,,,0.00,Wunderground v.1.15,2013-08-03 20:52:00,
2013-08-03 15:55:00,73.7,52.8,29.98,NNW,342,7.0,16.0,48,0.00,,,0.00,Wunderground v.1.15,2013-08-03 20:55:00,
2013-08-03 15:56:00,73.9,53.0,29.98,North,0,10.0,16.0,48,0.00,,,0.00,Wunderground v.1.15,2013-08-03 20:56:00,
2013-08-03 16:00:00,74.2,53.2,29.97,NNW,338,11.0,11.0,48,0.00,,,0.00,Wunderground v.1.15,2013-08-03 21:00:00,
2013-08-03 16:01:00,74.2,53.2,29.97,North,0,8.0,11.0,48,0.00,,,0.00,Wunderground v.1.15,2013-08-03 21:01:00,
2013-08-03 16:02:00,74.4,53.4,29.97,North,350,5.0,12.0,48,0.00,,,0.00,Wunderground v.1.15,2013-08-03 21:02:00,
2013-08-03 16:05:00,74.6,52.4,29.97,NE,36,12.0,12.0,46,0.00,,,0.00,Wunderground v.1.15,2013-08-03 21:05:00,
2013-08-03 16:06:00,74.6,52.4,29.97,NNE,30,10.0,12.0,46,0.00,,,0.00,Wunderground v.1.15,2013-08-03 21:06:00,
2013-08-03 16:10:00,74.7,52.5,29.97,NNW,328,5.0,9.0,46,0.00,,,0.00,Wunderground v.1.15,2013-08-03 21:10:00,
2013-08-03 16:11:00,74.9,53.9,29.96,NNW,340,11.0,13.0,48,0.00,,,0.00,Wunderground v.1.15,2013-08-03 21:11:00,
2013-08-03 16:14:00,74.9,52.7,29.96,NNW,331,10.0,13.0,46,0.00,,,0.00,Wunderground v.1.15,2013-08-03 21:14:00,
2013-08-03 16:15:00,74.9,52.7,29.96,North,349,15.0,15.0,46,0.00,,,0.00,Wunderground v.1.15,2013-08-03 21:15:00,
2013-08-03 16:16:00,74.7,53.1,29.96,NNW,343,9.0,15.0,47,0.00,,,0.00,Wunderground v.1.15,2013-08-03 21:16:00,
2013-08-03 16:17:00,74.7,53.7,29.96,NNW,338,7.0,15.0,48,0.00,,,0.00,Wunderground v.1.15,2013-08-03 21:17:00,
2013-08-03 16:20:00,74.9,53.9,29.96,NW,315,5.0,8.0,48,0.00,,,0.00,Wunderground v.1.15,2013-08-03 21:20:00,
2013-08-03 16:21:00,74.9,53.3,29.96,North,349,13.0,15.0,47,0.00,,,0.00,Wunderground v.1.15,2013-08-03 21:21:00,
2013-08-03 16:22:00,74.9,53.3,29.96,NNW,333,10.0,17.0,47,0.00,,,0.00,Wunderground v.1.15,2013-08-03 21:22:00,
2013-08-03 16:25:00,75.1,54.1,29.96,NNW,328,9.0,17.0,48,0.00,,,0.00,Wunderground v.1.15,2013-08-03 21:25:00,
2013-08-03 16:26:00,75.3,54.3,29.96,NNW,333,5.0,17.0,48,0.00,,,0.00,Wunderground v.1.15,2013-08-03 21:26:00,
2013-08-03 16:27:00,75.3,54.8,29.96,North,0,3.0,17.0,49,0.00,,,0.00,Wunderground v.1.15,2013-08-03 21:27:00,
2013-08-03 16:29:00,75.4,54.9,29.96,North,357,14.0,14.0,49,0.00,,,0.00,Wunderground v.1.15,2013-08-03 21:29:00,
2013-08-03 16:30:00,75.4,53.2,29.96,North,358,6.0,14.0,46,0.00,,,0.00,Wunderground v.1.15,2013-08-03 21:30:00,
2013-08-03 16:33:00,75.4,52.6,29.96,NNW,344,7.0,14.0,45,0.00,,,0.00,Wunderground v.1.15,2013-08-03 21:33:00,
2013-08-03 16:35:00,75.4,54.3,29.96,North,0,9.0,14.0,48,0.00,,,0.00,Wunderground v.1.15,2013-08-03 21:35:00,
2013-08-03 16:37:00,75.1,54.1,29.96,NNW,336,5.0,14.0,48,0.00,,,0.00,Wunderground v.1.15,2013-08-03 21:37:00,
2013-08-03 16:40:00,74.2,53.8,29.96,NNW,342,11.0,11.0,49,0.00,,,0.00,Wunderground v.1.15,2013-08-03 21:40:00,
2013-08-03 16:41:00,74.0,53.6,29.96,NNW,334,7.0,11.0,49,0.00,,,0.00,Wunderground v.1.15,2013-08-03 21:41:00,
2013-08-03 16:42:00,73.9,54.6,29.96,NNW,338,14.0,14.0,51,0.00,,,0.00,Wunderground v.1.15,2013-08-03 21:42:00,
2013-08-03 16:45:00,73.5,51.4,29.96,NNW,333,7.0,14.0,46,0.00,,,0.00,Wunderground v.1.15,2013-08-03 21:45:00,
2013-08-03 16:46:00,73.5,51.4,29.96,NNW,338,8.0,14.0,46,0.00,,,0.00,Wunderground v.1.15,2013-08-03 21:46:00,
2013-08-03 16:50:00,73.2,52.3,29.96,NW,325,7.0,9.0,48,0.00,,,0.00,Wunderground v.1.15,2013-08-03 21:50:00,
2013-08-03 16:51:00,73.2,53.4,29.96,NW,318,6.0,11.0,50,0.00,,,0.00,Wunderground v.1.15,2013-08-03 21:51:00,
2013-08-03 16:55:00,73.7,52.2,29.96,NNW,338,4.0,12.0,47,0.00,,,0.00,Wunderground v.1.15,2013-08-03 21:55:00,
2013-08-03 16:56:00,74.0,52.5,29.96,NNW,338,2.0,12.0,47,0.00,,,0.00,Wunderground v.1.15,2013-08-03 21:56:00,
2013-08-03 16:59:00,74.7,51.9,29.96,North,0,7.0,7.0,45,0.00,,,0.00,Wunderground v.1.15,2013-08-03 21:59:00,
2013-08-03 17:00:00,74.9,52.7,29.96,North,359,6.0,9.0,46,0.00,,,0.00,Wunderground v.1.15,2013-08-03 22:00:00,
2013-08-03 17:01:00,74.9,52.7,29.96,North,357,8.0,9.0,46,0.00,,,0.00,Wunderground v.1.15,2013-08-03 22:01:00,
2013-08-03 17:04:00,74.9,51.5,29.96,NNW,342,10.0,14.0,44,0.00,,,0.00,Wunderground v.1.15,2013-08-03 22:04:00,
2013-08-03 17:05:00,74.9,50.3,29.96,North,356,11.0,14.0,42,0.00,,,0.00,Wunderground v.1.15,2013-08-03 22:05:00,
2013-08-03 17:06:00,74.7,50.1,29.96,NNW,345,10.0,14.0,42,0.00,,,0.00,Wunderground v.1.15,2013-08-03 22:06:00,
2013-08-03 17:07:00,74.7,51.9,29.96,North,352,12.0,14.0,45,0.00,,,0.00,Wunderground v.1.15,2013-08-03 22:07:00,
2013-08-03 17:10:00,75.1,53.5,29.96,North,350,6.0,11.0,47,0.00,,,0.00,Wunderground v.1.15,2013-08-03 22:10:00,
2013-08-03 17:11:00,75.1,52.3,29.95,NNW,342,11.0,16.0,45,0.00,,,0.00,Wunderground v.1.15,2013-08-03 22:11:00,
2013-08-03 17:12:00,75.3,51.9,29.95,North,358,9.0,16.0,44,0.00,,,0.00,Wunderground v.1.15,2013-08-03 22:12:00,
2013-08-03 17:14:00,75.3,51.9,29.95,North,4,7.0,16.0,44,0.00,,,0.00,Wunderground v.1.15,2013-08-03 22:14:00,
2013-08-03 17:16:00,75.3,51.9,29.95,North,353,16.0,16.0,44,0.00,,,0.00,Wunderground v.1.15,2013-08-03 22:16:00,
2013-08-03 17:20:00,74.9,51.5,29.95,North,1,7.0,10.0,44,0.00,,,0.00,Wunderground v.1.15,2013-08-03 22:20:00,
2013-08-03 17:21:00,74.7,51.3,29.95,North,355,9.0,15.0,44,0.00,,,0.00,Wunderground v.1.15,2013-08-03 22:21:00,
2013-08-03 17:23:00,74.4,51.7,29.95,North,352,14.0,15.0,45,0.00,,,0.00,Wunderground v.1.15,2013-08-03 22:23:00,
2013-08-03 17:25:00,74.2,52.1,29.95,North,0,10.0,15.0,46,0.00,,,0.00,Wunderground v.1.15,2013-08-03 22:25:00,
2013-08-03 17:26:00,74.2,51.5,29.95,NNW,339,12.0,15.0,45,0.00,,,0.00,Wunderground v.1.15,2013-08-03 22:26:00,
2013-08-03 17:27:00,74.0,51.9,29.96,NNW,337,7.0,15.0,46,0.00,,,0.00,Wunderground v.1.15,2013-08-03 22:27:00,
2013-08-03 17:30:00,74.2,51.5,29.96,North,0,4.0,9.0,45,0.00,,,0.00,Wunderground v.1.15,2013-08-03 22:30:00,
2013-08-03 17:31:00,74.2,51.5,29.96,North,0,5.0,9.0,45,0.00,,,0.00,Wunderground v.1.15,2013-08-03 22:31:00,
2013-08-03 17:32:00,74.2,52.1,29.96,NNW,334,5.0,9.0,46,0.00,,,0.00,Wunderground v.1.15,2013-08-03 22:32:00,
2013-08-03 17:36:00,74.2,52.1,29.96,NW,315,10.0,13.0,46,0.00,,,0.00,Wunderground v.1.15,2013-08-03 22:36:00,
2013-08-03 17:37:00,74.2,50.9,29.96,North,1,11.0,13.0,44,0.00,,,0.00,Wunderground v.1.15,2013-08-03 22:37:00,
2013-08-03 17:40:00,74.4,51.1,29.96,North,0,9.0,9.0,44,0.00,,,0.00,Wunderground v.1.15,2013-08-03 22:40:00,
2013-08-03 17:42:00,74.6,51.2,29.96,North,359,5.0,13.0,44,0.00,,,0.00,Wunderground v.1.15,2013-08-03 22:42:00,
2013-08-03 17:45:00,74.9,52.1,29.96,NNW,339,9.0,14.0,45,0.00,,,0.00,Wunderground v.1.15,2013-08-03 22:45:00,
2013-08-03 17:46:00,74.7,50.7,29.96,NW,305,9.0,15.0,43,0.00,,,0.00,Wunderground v.1.15,2013-08-03 22:46:00,
2013-08-03 17:50:00,74.2,51.5,29.96,North,0,8.0,10.0,45,0.00,,,0.00,Wunderground v.1.15,2013-08-03 22:50:00,
2013-08-03 17:51:00,74.0,51.9,29.96,North,0,8.0,10.0,46,0.00,,,0.00,Wunderground v.1.15,2013-08-03 22:51:00,
2013-08-03 17:52:00,73.9,51.2,29.96,North,358,8.0,12.0,45,0.00,,,0.00,Wunderground v.1.15,2013-08-03 22:52:00,
2013-08-03 17:53:00,73.7,51.6,29.96,North,359,6.0,12.0,46,0.00,,,0.00,Wunderground v.1.15,2013-08-03 22:53:00,
2013-08-03 17:56:00,73.2,51.8,29.96,North,0,7.0,12.0,47,0.00,,,0.00,Wunderground v.1.15,2013-08-03 22:56:00,
2013-08-03 17:57:00,73.2,51.8,29.97,North,0,5.0,12.0,47,0.00,,,0.00,Wunderground v.1.15,2013-08-03 22:57:00,
2013-08-03 18:00:00,73.0,52.1,29.97,NNW,339,10.0,12.0,48,0.00,,,0.00,Wunderground v.1.15,2013-08-03 23:00:00,
2013-08-03 18:02:00,73.2,51.8,29.97,NNW,346,12.0,15.0,47,0.00,,,0.00,Wunderground v.1.15,2013-08-03 23:02:00,
2013-08-03 18:06:00,73.5,50.9,29.97,NNW,341,9.0,15.0,45,0.00,,,0.00,Wunderground v.1.15,2013-08-03 23:06:00,
2013-08-03 18:09:00,74.0,50.7,29.97,NNE,17,6.0,11.0,44,0.00,,,0.00,Wunderground v.1.15,2013-08-03 23:09:00,
2013-08-03 18:10:00,74.0,50.7,29.97,NNW,345,7.0,11.0,44,0.00,,,0.00,Wunderground v.1.15,2013-08-03 23:10:00,
2013-08-03 18:12:00,74.0,51.9,29.97,North,0,7.0,11.0,46,0.00,,,0.00,Wunderground v.1.15,2013-08-03 23:12:00,
2013-08-03 18:13:00,73.9,51.8,29.97,North,0,13.0,16.0,46,0.00,,,0.00,Wunderground v.1.15,2013-08-03 23:13:00,
2013-08-03 18:15:00,73.3,50.7,29.97,North,8,13.0,16.0,45,0.00,,,0.00,Wunderground v.1.15,2013-08-03 23:15:00,
2013-08-03 18:20:00,72.7,50.1,29.97,North,0,7.0,10.0,45,0.00,,,0.00,Wunderground v.1.15,2013-08-03 23:20:00,
2013-08-03 18:22:00,72.7,51.9,29.97,NNW,336,4.0,10.0,48,0.00,,,0.00,Wunderground v.1.15,2013-08-03 23:22:00,
2013-08-03 18:24:00,72.7,50.7,29.97,NW,326,6.0,10.0,46,0.00,,,0.00,Wunderground v.1.15,2013-08-03 23:24:00,
2013-08-03 18:25:00,72.7,50.7,29.97,NNW,341,5.0,10.0,46,0.00,,,0.00,Wunderground v.1.15,2013-08-03 23:25:00,
2013-08-03 18:26:00,72.5,51.1,29.97,North,355,8.0,11.0,47,0.00,,,0.00,Wunderground v.1.15,2013-08-03 23:26:00,
2013-08-03 18:27:00,72.5,51.7,29.97,NNW,344,8.0,11.0,48,0.00,,,0.00,Wunderground v.1.15,2013-08-03 23:27:00,
2013-08-03 18:28:00,72.5,51.7,29.97,NNW,345,6.0,11.0,48,0.00,,,0.00,Wunderground v.1.15,2013-08-03 23:28:00,
2013-08-03 18:32:00,72.8,50.8,29.97,North,359,9.0,10.0,46,0.00,,,0.00,Wunderground v.1.15,2013-08-03 23:32:00,
2013-08-03 18:35:00,73.2,51.2,29.97,NNW,334,5.0,10.0,46,0.00,,,0.00,Wunderground v.1.15,2013-08-03 23:35:00,
2013-08-03 18:36:00,73.2,51.2,29.97,NNW,344,5.0,10.0,46,0.00,,,0.00,Wunderground v.1.15,2013-08-03 23:36:00,
2013-08-03 18:37:00,73.3,50.7,29.97,NNW,348,10.0,11.0,45,0.00,,,0.00,Wunderground v.1.15,2013-08-03 23:37:00,
2013-08-03 18:40:00,73.7,51.0,29.97,North,0,9.0,11.0,45,0.00,,,0.00,Wunderground v.1.15,2013-08-03 23:40:00,
2013-08-03 18:41:00,73.7,51.0,29.97,North,356,5.0,11.0,45,0.00,,,0.00,Wunderground v.1.15,2013-08-03 23:41:00,
2013-08-03 18:45:00,73.7,51.6,29.97,North,352,6.0,11.0,46,0.00,,,0.00,Wunderground v.1.15,2013-08-03 23:45:00,
2013-08-03 18:46:00,73.7,51.6,29.97,North,351,6.0,11.0,46,0.00,,,0.00,Wunderground v.1.15,2013-08-03 23:46:00,
2013-08-03 18:47:00,73.9,51.2,29.97,North,0,7.0,11.0,45,0.00,,,0.00,Wunderground v.1.15,2013-08-03 23:47:00,
2013-08-03 18:50:00,73.7,51.6,29.97,North,0,3.0,6.0,46,0.00,,,0.00,Wunderground v.1.15,2013-08-03 23:50:00,
2013-08-03 18:52:00,73.7,52.2,29.97,NNE,25,4.0,6.0,47,0.00,,,0.00,Wunderground v.1.15,2013-08-03 23:52:00,
2013-08-03 18:54:00,73.9,52.4,29.97,NE,45,1.0,6.0,47,0.00,,,0.00,Wunderground v.1.15,2013-08-03 23:54:00,
2013-08-03 18:57:00,74.0,51.3,29.97,NNE,13,3.0,6.0,45,0.00,,,0.00,Wunderground v.1.15,2013-08-03 23:57:00,
2013-08-03 18:58:00,74.0,51.3,29.97,NNE,13,3.0,6.0,45,0.00,,,0.00,Wunderground v.1.15,2013-08-03 23:58:00,
2013-08-03 19:00:00,74.4,51.7,29.97,North,0,6.0,8.0,45,0.00,,,0.00,Wunderground v.1.15,2013-08-04 00:00:00,
2013-08-03 19:01:00,74.4,51.7,29.97,North,9,5.0,8.0,45,0.00,,,0.00,Wunderground v.1.15,2013-08-04 00:01:00,
2013-08-03 19:05:00,74.0,51.3,29.97,North,0,7.0,8.0,45,0.00,,,0.00,Wunderground v.1.15,2013-08-04 00:05:00,
2013-08-03 19:06:00,73.9,51.2,29.97,North,358,11.0,11.0,45,0.00,,,0.00,Wunderground v.1.15,2013-08-04 00:06:00,
2013-08-03 19:08:00,73.5,51.4,29.97,North,0,8.0,11.0,46,0.00,,,0.00,Wunderground v.1.15,2013-08-04 00:08:00,
2013-08-03 19:09:00,73.2,50.6,29.97,North,352,5.0,6.0,45,0.00,,,0.00,Wunderground v.1.15,2013-08-04 00:09:00,
2013-08-03 19:10:00,73.2,51.2,29.97,North,349,4.0,6.0,46,0.00,,,0.00,Wunderground v.1.15,2013-08-04 00:10:00,
2013-08-03 19:11:00,73.0,51.6,29.97,NNW,328,5.0,6.0,47,0.00,,,0.00,Wunderground v.1.15,2013-08-04 00:11:00,
2013-08-03 19:12:00,72.8,52.0,29.97,North,349,4.0,6.0,48,0.00,,,0.00,Wunderground v.1.15,2013-08-04 00:12:00,
2013-08-03 19:15:00,72.3,50.4,29.97,North,356,4.0,11.0,46,0.00,,,0.00,Wunderground v.1.15,2013-08-04 00:15:00,
2013-08-03 19:16:00,72.3,50.4,29.97,North,0,7.0,11.0,46,0.00,,,0.00,Wunderground v.1.15,2013-08-04 00:16:00,
2013-08-03 19:17:00,72.3,50.4,29.97,North,350,6.0,11.0,46,0.00,,,0.00,Wunderground v.1.15,2013-08-04 00:17:00,
2013-08-03 19:21:00,72.1,50.2,29.97,NNW,345,6.0,8.0,46,0.00,,,0.00,Wunderground v.1.15,2013-08-04 00:21:00,
2013-08-03 19:22:00,72.1,50.2,29.97,North,359,4.0,8.0,46,0.00,,,0.00,Wunderground v.1.15,2013-08-04 00:22:00,
2013-08-03 19:25:00,72.3,50.4,29.97,NNW,342,5.0,8.0,46,0.00,,,0.00,Wunderground v.1.15,2013-08-04 00:25:00,
2013-08-03 19:27:00,72.1,50.2,29.97,North,359,5.0,10.0,46,0.00,,,0.00,Wunderground v.1.15,2013-08-04 00:27:00,
2013-08-03 19:30:00,72.0,50.7,29.97,NNW,335,4.0,6.0,47,0.00,,,0.00,Wunderground v.1.15,2013-08-04 00:30:00,
2013-08-03 19:35:00,71.8,50.5,29.97,NNW,343,5.0,6.0,47,0.00,,,0.00,Wunderground v.1.15,2013-08-04 00:35:00,
2013-08-03 19:36:00,71.8,50.5,29.97,NNW,335,6.0,7.0,47,0.00,,,0.00,Wunderground v.1.15,2013-08-04 00:36:00,
2013-08-03 19:37:00,71.8,50.5,29.97,NNW,333,3.0,7.0,47,0.00,,,0.00,Wunderground v.1.15,2013-08-04 00:37:00,
2013-08-03 19:40:00,71.6,50.3,29.97,NNW,332,5.0,5.0,47,0.00,,,0.00,Wunderground v.1.15,2013-08-04 00:40:00,
2013-08-03 19:41:00,71.6,50.3,29.97,NNW,332,3.0,5.0,47,0.00,,,0.00,Wunderground v.1.15,2013-08-04 00:41:00,
2013-08-03 19:42:00,71.6,50.3,29.97,NNW,335,6.0,6.0,47,0.00,,,0.00,Wunderground v.1.15,2013-08-04 00:42:00,
2013-08-03 19:43:00,71.6,50.3,29.97,NNW,341,5.0,6.0,47,0.00,,,0.00,Wunderground v.1.15,2013-08-04 00:43:00,
2013-08-03 19:46:00,71.6,50.3,29.97,NW,321,3.0,7.0,47,0.00,,,0.00,Wunderground v.1.15,2013-08-04 00:46:00,
2013-08-03 19:47:00,71.5,50.2,29.97,NNW,330,3.0,7.0,47,0.00,,,0.00,Wunderground v.1.15,2013-08-04 00:47:00,
2013-08-03 19:50:00,71.5,49.6,29.97,NNW,341,3.0,5.0,46,0.00,,,0.00,Wunderground v.1.15,2013-08-04 00:50:00,
2013-08-03 19:51:00,71.3,49.4,29.97,NNW,341,3.0,5.0,46,0.00,,,0.00,Wunderground v.1.15,2013-08-04 00:51:00,
2013-08-03 19:52:00,71.3,49.4,29.97,NNW,341,3.0,5.0,46,0.00,,,0.00,Wunderground v.1.15,2013-08-04 00:52:00,
2013-08-03 19:55:00,71.3,50.0,29.97,NNW,344,4.0,5.0,47,0.00,,,0.00,Wunderground v.1.15,2013-08-04 00:55:00,
2013-08-03 19:56:00,71.1,49.8,29.97,NNW,344,2.0,5.0,47,0.00,,,0.00,Wunderground v.1.15,2013-08-04 00:56:00,
2013-08-03 19:57:00,71.1,49.8,29.97,NNW,344,2.0,5.0,47,0.00,,,0.00,Wunderground v.1.15,2013-08-04 00:57:00,
2013-08-03 20:00:00,70.9,49.7,29.97,ESE,103,5.0,5.0,47,0.00,,,0.00,Wunderground v.1.15,2013-08-04 01:00:00,
2013-08-03 20:01:00,70.4,54.0,29.97,ESE,120,6.0,7.0,56,0.00,,,0.00,Wunderground v.1.15,2013-08-04 01:01:00,
2013-08-03 20:02:00,70.3,54.8,29.97,SE,124,8.0,8.0,58,0.00,,,0.00,Wunderground v.1.15,2013-08-04 01:02:00,
2013-08-03 20:05:00,69.3,55.3,29.97,SSE,150,9.0,11.0,61,0.00,,,0.00,Wunderground v.1.15,2013-08-04 01:05:00,
2013-08-03 20:06:00,68.8,55.2,29.97,SE,143,7.0,11.0,62,0.00,,,0.00,Wunderground v.1.15,2013-08-04 01:06:00,
2013-08-03 20:07:00,68.4,55.3,29.97,SE,127,5.0,11.0,63,0.00,,,0.00,Wunderground v.1.15,2013-08-04 01:07:00,
2013-08-03 20:08:00,68.3,55.6,29.97,SE,129,11.0,12.0,64,0.00,,,0.00,Wunderground v.1.15,2013-08-04 01:08:00,
2013-08-03 20:10:00,67.9,55.7,29.97,SE,124,4.0,8.0,65,0.00,,,0.00,Wunderground v.1.15,2013-08-04 01:10:00,
2013-08-03 20:11:00,67.8,55.6,29.98,SE,131,6.0,8.0,65,0.00,,,0.00,Wunderground v.1.15,2013-08-04 01:11:00,
2013-08-03 20:13:00,67.6,55.4,29.98,SE,134,5.0,8.0,65,0.00,,,0.00,Wunderground v.1.15,2013-08-04 01:13:00,
2013-08-03 20:15:00,67.4,55.6,29.98,SE,127,6.0,8.0,66,0.00,,,0.00,Wunderground v.1.15,2013-08-04 01:15:00,
2013-08-03 20:16:00,67.3,55.5,29.98,SE,129,5.0,8.0,66,0.00,,,0.00,Wunderground v.1.15,2013-08-04 01:16:00,
2013-08-03 20:17:00,67.3,55.5,29.98,ESE,119,5.0,9.0,66,0.00,,,0.00,Wunderground v.1.15,2013-08-04 01:17:00,
2013-08-03 20:20:00,66.9,55.6,29.98,SE,131,7.0,7.0,67,0.00,,,0.00,Wunderground v.1.15,2013-08-04 01:20:00,
2013-08-03 20:21:00,66.8,55.9,29.98,SE,127,6.0,7.0,68,0.00,,,0.00,Wunderground v.1.15,2013-08-04 01:21:00,
2013-08-03 20:22:00,66.8,55.9,29.98,SE,130,6.0,7.0,68,0.00,,,0.00,Wunderground v.1.15,2013-08-04 01:22:00,
2013-08-03 20:25:00,66.4,55.5,29.98,SE,136,9.0,9.0,68,0.00,,,0.00,Wunderground v.1.15,2013-08-04 01:25:00,
2013-08-03 20:27:00,66.1,55.6,29.98,SE,141,9.0,10.0,69,0.00,,,0.00,Wunderground v.1.15,2013-08-04 01:27:00,
2013-08-03 20:28:00,66.1,55.6,29.98,SE,124,4.0,10.0,69,0.00,,,0.00,Wunderground v.1.15,2013-08-04 01:28:00,
2013-08-03 20:29:00,66.0,55.5,29.98,SE,139,7.0,10.0,69,0.00,,,0.00,Wunderground v.1.15,2013-08-04 01:29:00,
2013-08-03 20:30:00,66.0,55.5,29.98,SE,141,10.0,10.0,69,0.00,,,0.00,Wunderground v.1.15,2013-08-04 01:30:00,
2013-08-03 20:35:00,65.8,55.3,29.98,SE,136,6.0,10.0,69,0.00,,,0.00,Wunderground v.1.15,2013-08-04 01:35:00,
2013-08-03 20:36:00,65.6,55.2,29.98,SSE,152,6.0,10.0,69,0.00,,,0.00,Wunderground v.1.15,2013-08-04 01:36:00,
2013-08-03 20:37:00,65.6,55.2,29.98,SSE,150,4.0,10.0,69,0.00,,,0.00,Wunderground v.1.15,2013-08-04 01:37:00,
2013-08-03 20:39:00,65.6,55.2,29.98,SE,141,4.0,7.0,69,0.00,,,0.00,Wunderground v.1.15,2013-08-04 01:39:00,
2013-08-03 20:40:00,65.6,55.2,29.98,SSE,148,5.0,7.0,69,0.00,,,0.00,Wunderground v.1.15,2013-08-04 01:40:00,
2013-08-03 20:41:00,65.6,55.2,29.98,SSE,148,7.0,8.0,69,0.00,,,0.00,Wunderground v.1.15,2013-08-04 01:41:00,
2013-08-03 20:42:00,65.6,55.2,29.98,SSE,150,5.0,8.0,69,0.00,,,0.00,Wunderground v.1.15,2013-08-04 01:42:00,
2013-08-03 20:44:00,65.5,55.5,29.98,SE,138,3.0,8.0,70,0.00,,,0.00,Wunderground v.1.15,2013-08-04 01:44:00,
2013-08-03 20:47:00,65.5,55.5,29.98,SE,144,4.0,8.0,70,0.00,,,0.00,Wunderground v.1.15,2013-08-04 01:47:00,
2013-08-03 20:50:00,65.3,55.7,29.98,SSE,158,5.0,6.0,71,0.00,,,0.00,Wunderground v.1.15,2013-08-04 01:50:00,
2013-08-03 20:51:00,65.3,55.7,29.98,SSE,154,6.0,6.0,71,0.00,,,0.00,Wunderground v.1.15,2013-08-04 01:51:00,
2013-08-03 20:52:00,65.3,56.0,29.98,SSE,154,5.0,6.0,72,0.00,,,0.00,Wunderground v.1.15,2013-08-04 01:52:00,
2013-08-03 20:53:00,65.3,56.0,29.98,SSE,154,2.0,6.0,72,0.00,,,0.00,Wunderground v.1.15,2013-08-04 01:53:00,
2013-08-03 20:56:00,65.3,56.0,29.98,SSE,155,4.0,6.0,72,0.00,,,0.00,Wunderground v.1.15,2013-08-04 01:56:00,
2013-08-03 21:00:00,65.3,56.0,29.98,SSE,154,4.0,4.0,72,0.00,,,0.00,Wunderground v.1.15,2013-08-04 02:00:00,
2013-08-03 21:01:00,65.3,56.0,29.98,SSE,155,4.0,4.0,72,0.00,,,0.00,Wunderground v.1.15,2013-08-04 02:01:00,
2013-08-03 21:02:00,65.3,56.0,29.98,South,173,4.0,5.0,72,0.00,,,0.00,Wunderground v.1.15,2013-08-04 02:02:00,
2013-08-03 21:05:00,65.3,56.0,29.98,SSE,165,3.0,6.0,72,0.00,,,0.00,Wunderground v.1.15,2013-08-04 02:05:00,
2013-08-03 21:06:00,65.3,56.0,29.98,SSE,165,2.0,6.0,72,0.00,,,0.00,Wunderground v.1.15,2013-08-04 02:06:00,
2013-08-03 21:07:00,65.2,55.9,29.98,SSE,162,3.0,6.0,72,0.00,,,0.00,Wunderground v.1.15,2013-08-04 02:07:00,
2013-08-03 21:10:00,65.0,56.1,29.98,SSE,162,4.0,5.0,73,0.00,,,0.00,Wunderground v.1.15,2013-08-04 02:10:00,
2013-08-03 21:11:00,65.0,56.1,29.99,SSE,162,3.0,5.0,73,0.00,,,0.00,Wunderground v.1.15,2013-08-04 02:11:00,
2013-08-03 21:12:00,65.0,56.1,29.99,SSE,160,4.0,5.0,73,0.00,,,0.00,Wunderground v.1.15,2013-08-04 02:12:00,
2013-08-03 21:13:00,65.0,56.1,29.99,SSE,160,3.0,5.0,73,0.00,,,0.00,Wunderground v.1.15,2013-08-04 02:13:00,
2013-08-03 21:15:00,64.8,55.9,29.99,SSE,161,3.0,5.0,73,0.00,,,0.00,Wunderground v.1.15,2013-08-04 02:15:00,
2013-08-03 21:16:00,64.8,56.3,29.99,SSE,161,3.0,5.0,74,0.00,,,0.00,Wunderground v.1.15,2013-08-04 02:16:00,
2013-08-03 21:17:00,64.7,56.2,29.99,SSE,161,3.0,5.0,74,0.00,,,0.00,Wunderground v.1.15,2013-08-04 02:17:00,
2013-08-03 21:20:00,64.5,56.0,29.99,SSE,160,3.0,3.0,74,0.00,,,0.00,Wunderground v.1.15,2013-08-04 02:20:00,
2013-08-03 21:21:00,64.5,56.0,29.99,SSE,160,3.0,3.0,74,0.00,,,0.00,Wunderground v.1.15,2013-08-04 02:21:00,
2013-08-03 21:23:00,64.5,56.4,29.99,SSE,160,2.0,3.0,75,0.00,,,0.00,Wunderground v.1.15,2013-08-04 02:23:00,
2013-08-03 21:25:00,64.3,56.2,29.99,SSE,160,2.0,3.0,75,0.00,,,0.00,Wunderground v.1.15,2013-08-04 02:25:00,
2013-08-03 21:26:00,64.3,56.2,29.99,SSE,160,1.0,3.0,75,0.00,,,0.00,Wunderground v.1.15,2013-08-04 02:26:00,
2013-08-03 21:28:00,64.3,56.2,30.00,SSE,160,2.0,3.0,75,0.00,,,0.00,Wunderground v.1.15,2013-08-04 02:28:00,
2013-08-03 21:30:00,64.3,56.6,30.00,SSE,160,4.0,4.0,76,0.00,,,0.00,Wunderground v.1.15,2013-08-04 02:30:00,
2013-08-03 21:31:00,64.3,56.6,30.00,SSE,160,3.0,4.0,76,0.00,,,0.00,Wunderground v.1.15,2013-08-04 02:31:00,
2013-08-03 21:32:00,64.3,56.6,30.00,SSE,160,2.0,4.0,76,0.00,,,0.00,Wunderground v.1.15,2013-08-04 02:32:00,
2013-08-03 21:35:00,64.2,56.5,30.00,SSE,160,2.0,4.0,76,0.00,,,0.00,Wunderground v.1.15,2013-08-04 02:35:00,
2013-08-03 21:37:00,64.0,56.6,30.00,SSE,160,3.0,4.0,77,0.00,,,0.00,Wunderground v.1.15,2013-08-04 02:37:00,
2013-08-03 21:38:00,64.0,56.6,30.00,SSE,160,2.0,4.0,77,0.00,,,0.00,Wunderground v.1.15,2013-08-04 02:38:00,
2013-08-03 21:41:00,64.0,56.6,30.00,SSE,160,3.0,4.0,77,0.00,,,0.00,Wunderground v.1.15,2013-08-04 02:41:00,
2013-08-03 21:42:00,63.9,56.5,30.00,SSE,160,2.0,4.0,77,0.00,,,0.00,Wunderground v.1.15,2013-08-04 02:42:00,
2013-08-03 21:45:00,63.9,56.9,30.00,SSE,160,3.0,4.0,78,0.00,,,0.00,Wunderground v.1.15,2013-08-04 02:45:00,
2013-08-03 21:46:00,63.9,56.9,30.00,SSE,160,3.0,4.0,78,0.00,,,0.00,Wunderground v.1.15,2013-08-04 02:46:00,
2013-08-03 21:47:00,63.7,56.7,30.00,SSE,160,3.0,4.0,78,0.00,,,0.00,Wunderground v.1.15,2013-08-04 02:47:00,
2013-08-03 21:50:00,63.7,56.7,30.00,SSE,160,3.0,3.0,78,0.00,,,0.00,Wunderground v.1.15,2013-08-04 02:50:00,
2013-08-03 21:52:00,63.5,56.5,30.00,SSE,160,3.0,4.0,78,0.00,,,0.00,Wunderground v.1.15,2013-08-04 02:52:00,
2013-08-03 21:55:00,63.5,56.2,30.00,SSE,160,3.0,4.0,77,0.00,,,0.00,Wunderground v.1.15,2013-08-04 02:55:00,
2013-08-03 21:56:00,63.5,56.2,30.00,SSE,160,3.0,4.0,77,0.00,,,0.00,Wunderground v.1.15,2013-08-04 02:56:00,
2013-08-03 21:57:00,63.4,56.1,30.00,SSE,160,2.0,4.0,77,0.00,,,0.00,Wunderground v.1.15,2013-08-04 02:57:00,
2013-08-03 21:58:00,63.4,56.1,30.00,SSE,160,2.0,4.0,77,0.00,,,0.00,Wunderground v.1.15,2013-08-04 02:58:00,
2013-08-03 22:01:00,63.4,56.1,30.00,SSE,160,2.0,3.0,77,0.00,,,0.00,Wunderground v.1.15,2013-08-04 03:01:00,
2013-08-03 22:05:00,63.1,56.1,30.00,SSE,160,2.0,3.0,78,0.00,,,0.00,Wunderground v.1.15,2013-08-04 03:05:00,
2013-08-03 22:06:00,63.1,56.1,30.00,SSE,160,3.0,3.0,78,0.00,,,0.00,Wunderground v.1.15,2013-08-04 03:06:00,
2013-08-03 22:10:00,62.9,55.9,30.00,SSE,160,2.0,3.0,78,0.00,,,0.00,Wunderground v.1.15,2013-08-04 03:10:00,
2013-08-03 22:11:00,62.9,56.3,30.00,SSE,160,3.0,4.0,79,0.00,,,0.00,Wunderground v.1.15,2013-08-04 03:11:00,
2013-08-03 22:12:00,62.9,56.3,30.00,SSE,160,2.0,4.0,79,0.00,,,0.00,Wunderground v.1.15,2013-08-04 03:12:00,
2013-08-03 22:16:00,62.7,56.1,30.00,SSE,160,1.0,4.0,79,0.00,,,0.00,Wunderground v.1.15,2013-08-04 03:16:00,
2013-08-03 22:17:00,62.7,56.1,30.00,SSE,160,1.0,4.0,79,0.00,,,0.00,Wunderground v.1.15,2013-08-04 03:17:00,
2013-08-03 22:18:00,62.7,56.1,30.00,SSE,160,0.0,4.0,79,0.00,,,0.00,Wunderground v.1.15,2013-08-04 03:18:00,
2013-08-03 22:23:00,62.6,56.0,30.00,SSE,160,3.0,3.0,79,0.00,,,0.00,Wunderground v.1.15,2013-08-04 03:23:00,
2013-08-03 22:25:00,62.6,56.3,30.00,SSE,160,2.0,3.0,80,0.00,,,0.00,Wunderground v.1.15,2013-08-04 03:25:00,
2013-08-03 22:26:00,62.6,56.3,30.01,SSE,160,3.0,3.0,80,0.00,,,0.00,Wunderground v.1.15,2013-08-04 03:26:00,
2013-08-03 22:30:00,62.6,56.3,30.01,SSE,160,3.0,3.0,80,0.00,,,0.00,Wunderground v.1.15,2013-08-04 03:30:00,
2013-08-03 22:31:00,62.6,56.3,30.01,SSE,160,2.0,3.0,80,0.00,,,0.00,Wunderground v.1.15,2013-08-04 03:31:00,
2013-08-03 22:32:00,62.6,56.3,30.01,SSE,160,2.0,3.0,80,0.00,,,0.00,Wunderground v.1.15,2013-08-04 03:32:00,
2013-08-03 22:35:00,62.6,56.3,30.01,SSE,160,3.0,3.0,80,0.00,,,0.00,Wunderground v.1.15,2013-08-04 03:35:00,
2013-08-03 22:36:00,62.6,56.3,30.01,SSE,160,3.0,4.0,80,0.00,,,0.00,Wunderground v.1.15,2013-08-04 03:36:00,
2013-08-03 22:37:00,62.6,56.3,30.01,SSE,160,3.0,4.0,80,0.00,,,0.00,Wunderground v.1.15,2013-08-04 03:37:00,
2013-08-03 22:40:00,62.4,56.1,30.01,SSE,160,3.0,4.0,80,0.00,,,0.00,Wunderground v.1.15,2013-08-04 03:40:00,
2013-08-03 22:41:00,62.4,56.1,30.01,SSE,160,3.0,4.0,80,0.00,,,0.00,Wunderground v.1.15,2013-08-04 03:41:00,
2013-08-03 22:42:00,62.4,56.1,30.01,SSE,160,2.0,4.0,80,0.00,,,0.00,Wunderground v.1.15,2013-08-04 03:42:00,
2013-08-03 22:45:00,62.3,56.4,30.01,SSE,160,2.0,4.0,81,0.00,,,0.00,Wunderground v.1.15,2013-08-04 03:45:00,
2013-08-03 22:46:00,62.3,56.4,30.01,SSE,160,2.0,4.0,81,0.00,,,0.00,Wunderground v.1.15,2013-08-04 03:46:00,
2013-08-03 22:47:00,62.3,56.4,30.01,SSE,160,3.0,4.0,81,0.00,,,0.00,Wunderground v.1.15,2013-08-04 03:47:00,
2013-08-03 22:51:00,62.3,56.7,30.01,SSE,160,2.0,3.0,82,0.00,,,0.00,Wunderground v.1.15,2013-08-04 03:51:00,
2013-08-03 22:52:00,62.3,56.7,30.01,SSE,160,3.0,3.0,82,0.00,,,0.00,Wunderground v.1.15,2013-08-04 03:52:00,
2013-08-03 22:56:00,62.1,56.5,30.01,SSE,160,3.0,3.0,82,0.00,,,0.00,Wunderground v.1.15,2013-08-04 03:56:00,
2013-08-03 22:57:00,62.1,56.5,30.01,SSE,160,2.0,3.0,82,0.00,,,0.00,Wunderground v.1.15,2013-08-04 03:57:00,
2013-08-03 22:58:00,62.1,56.5,30.01,SSE,160,2.0,3.0,82,0.00,,,0.00,Wunderground v.1.15,2013-08-04 03:58:00,
2013-08-03 22:59:00,62.1,56.5,30.01,SSE,160,2.0,3.0,82,0.00,,,0.00,Wunderground v.1.15,2013-08-04 03:59:00,
2013-08-03 23:01:00,62.1,56.5,30.01,SSE,160,3.0,3.0,82,0.00,,,0.00,Wunderground v.1.15,2013-08-04 04:01:00,
2013-08-03 23:05:00,62.0,56.8,30.01,SSE,160,2.0,3.0,83,0.00,,,0.00,Wunderground v.1.15,2013-08-04 04:05:00,
2013-08-03 23:06:00,62.0,56.8,30.01,SSE,160,2.0,3.0,83,0.00,,,0.00,Wunderground v.1.15,2013-08-04 04:06:00,
2013-08-03 23:07:00,62.0,56.8,30.01,SSE,160,2.0,3.0,83,0.00,,,0.00,Wunderground v.1.15,2013-08-04 04:07:00,
2013-08-03 23:11:00,61.8,56.6,30.01,SSE,160,2.0,2.0,83,0.00,,,0.00,Wunderground v.1.15,2013-08-04 04:11:00,
2013-08-03 23:12:00,61.8,56.6,30.01,SSE,160,2.0,2.0,83,0.00,,,0.00,Wunderground v.1.15,2013-08-04 04:12:00,
2013-08-03 23:17:00,61.8,56.9,30.01,SSE,160,2.0,2.0,84,0.00,,,0.00,Wunderground v.1.15,2013-08-04 04:17:00,
2013-08-03 23:20:00,61.8,56.9,30.01,SSE,160,2.0,2.0,84,0.00,,,0.00,Wunderground v.1.15,2013-08-04 04:20:00,
2013-08-03 23:22:00,61.8,56.9,30.01,SSE,160,2.0,3.0,84,0.00,,,0.00,Wunderground v.1.15,2013-08-04 04:22:00,
2013-08-03 23:25:00,61.8,56.9,30.01,SSE,160,2.0,3.0,84,0.00,,,0.00,Wunderground v.1.15,2013-08-04 04:25:00,
2013-08-03 23:26:00,61.8,56.9,30.01,SSE,160,2.0,3.0,84,0.00,,,0.00,Wunderground v.1.15,2013-08-04 04:26:00,
2013-08-03 23:27:00,61.8,56.9,30.01,SSE,160,3.0,3.0,84,0.00,,,0.00,Wunderground v.1.15,2013-08-04 04:27:00,
2013-08-03 23:30:00,61.8,56.9,30.01,SSE,160,3.0,3.0,84,0.00,,,0.00,Wunderground v.1.15,2013-08-04 04:30:00,
2013-08-03 23:32:00,61.8,56.9,30.01,SSE,160,3.0,3.0,84,0.00,,,0.00,Wunderground v.1.15,2013-08-04 04:32:00,
2013-08-03 23:35:00,61.8,56.9,30.01,SSE,160,3.0,3.0,84,0.00,,,0.00,Wunderground v.1.15,2013-08-04 04:35:00,
2013-08-03 23:36:00,61.6,56.7,30.01,SSE,160,3.0,3.0,84,0.00,,,0.00,Wunderground v.1.15,2013-08-04 04:36:00,
2013-08-03 23:37:00,61.6,56.7,30.01,SSE,160,2.0,3.0,84,0.00,,,0.00,Wunderground v.1.15,2013-08-04 04:37:00,
2013-08-03 23:40:00,61.6,56.7,30.01,SSE,160,3.0,3.0,84,0.00,,,0.00,Wunderground v.1.15,2013-08-04 04:40:00,
2013-08-03 23:41:00,61.6,57.0,30.01,SSE,160,2.0,3.0,85,0.00,,,0.00,Wunderground v.1.15,2013-08-04 04:41:00,
2013-08-03 23:42:00,61.5,56.9,30.01,SSE,160,2.0,3.0,85,0.00,,,0.00,Wunderground v.1.15,2013-08-04 04:42:00,
2013-08-03 23:43:00,61.5,56.9,30.01,SSE,160,1.0,3.0,85,0.00,,,0.00,Wunderground v.1.15,2013-08-04 04:43:00,
2013-08-03 23:46:00,61.5,56.9,30.01,SSE,160,2.0,3.0,85,0.00,,,0.00,Wunderground v.1.15,2013-08-04 04:46:00,
2013-08-03 23:47:00,61.3,56.8,30.01,SSE,160,2.0,3.0,85,0.00,,,0.00,Wunderground v.1.15,2013-08-04 04:47:00,
2013-08-03 23:50:00,61.3,57.1,30.01,SSE,160,1.0,3.0,86,0.00,,,0.00,Wunderground v.1.15,2013-08-04 04:50:00,
2013-08-03 23:52:00,61.3,57.1,30.01,SSE,160,2.0,2.0,86,0.00,,,0.00,Wunderground v.1.15,2013-08-04 04:52:00,
2013-08-03 23:54:00,61.3,57.1,30.01,SSE,160,1.0,2.0,86,0.00,,,0.00,Wunderground v.1.15,2013-08-04 04:54:00,
2013-08-03 23:55:00,61.3,57.1,30.01,SSE,160,2.0,2.0,86,0.00,,,0.00,Wunderground v.1.15,2013-08-04 04:55:00,
2013-08-03 23:57:00,61.2,57.0,30.02,SSE,160,2.0,2.0,86,0.00,,,0.00,Wunderground v.1.15,2013-08-04 04:57:00,